Time,TemperatureF,DewpointF,PressureIn,WindDirection,WindDirectionDegrees,WindSpeedMPH,WindSpeedGustMPH,Humidity,HourlyPrecipIn,Conditions,Clouds,dailyrainin,SoftwareType,DateUTC
2013-04-07 00:00:00,44.3,19.6,30.08,East,89,0.0,1.0,37,0.00,,,0.00,Wunderground v.1.15,2013-04-07 04:00:00,
2013-04-07 00:01:00,44.4,19.7,30.08,SSE,150,1.0,2.0,37,0.00,,,0.00,Wunderground v.1.15,2013-04-07 04:01:00,
2013-04-07 00:04:00,44.6,19.9,30.07,South,181,1.0,2.0,37,0.00,,,0.00,Wunderground v.1.15,2013-04-07 04:04:00,
2013-04-07 00:06:00,44.7,19.3,30.07,SE,134,1.0,3.0,36,0.00,,,0.00,Wunderground v.1.15,2013-04-07 04:06:00,
2013-04-07 00:08:00,44.9,19.5,30.07,South,184,1.0,3.0,36,0.00,,,0.00,Wunderground v.1.15,2013-04-07 04:08:00,
2013-04-07 00:09:00,44.9,19.5,30.07,ESE,112,2.0,6.0,36,0.00,,,0.00,Wunderground v.1.15,2013-04-07 04:09:00,
2013-04-07 00:13:00,45.2,19.1,30.07,SE,139,2.0,4.0,35,0.00,,,0.00,Wunderground v.1.15,2013-04-07 04:13:00,
2013-04-07 00:15:00,45.2,19.1,30.07,WSW,245,2.0,4.0,35,0.00,,,0.00,Wunderground v.1.15,2013-04-07 04:15:00,
2013-04-07 00:17:00,45.3,19.2,30.07,SSE,161,2.0,4.0,35,0.00,,,0.00,Wunderground v.1.15,2013-04-07 04:17:00,
2013-04-07 00:18:00,45.4,19.3,30.06,East,87,2.0,6.0,35,0.00,,,0.00,Wunderground v.1.15,2013-04-07 04:18:00,
2013-04-07 00:20:00,45.4,19.3,30.06,ESE,111,2.0,2.0,35,0.00,,,0.00,Wunderground v.1.15,2013-04-07 04:20:00,
2013-04-07 00:22:00,45.5,18.7,30.07,SE,125,2.0,4.0,34,0.00,,,0.00,Wunderground v.1.15,2013-04-07 04:22:00,
2013-04-07 00:23:00,45.5,19.4,30.06,East,89,2.0,4.0,35,0.00,,,0.00,Wunderground v.1.15,2013-04-07 04:23:00,
2013-04-07 00:28:00,45.6,19.5,30.06,SE,141,2.0,4.0,35,0.00,,,0.00,Wunderground v.1.15,2013-04-07 04:28:00,
2013-04-07 00:29:00,45.6,19.5,30.06,SSE,167,2.0,4.0,35,0.00,,,0.00,Wunderground v.1.15,2013-04-07 04:29:00,
2013-04-07 00:32:00,45.7,19.6,30.06,ESE,114,2.0,4.0,35,0.00,,,0.00,Wunderground v.1.15,2013-04-07 04:32:00,
2013-04-07 00:34:00,45.7,18.9,30.05,SE,128,2.0,5.0,34,0.00,,,0.00,Wunderground v.1.15,2013-04-07 04:34:00,
2013-04-07 00:37:00,45.7,19.6,30.05,SSW,195,3.0,5.0,35,0.00,,,0.00,Wunderground v.1.15,2013-04-07 04:37:00,
2013-04-07 00:40:00,45.7,19.6,30.05,ESE,112,3.0,7.0,35,0.00,,,0.00,Wunderground v.1.15,2013-04-07 04:40:00,
2013-04-07 00:42:00,45.7,19.6,30.05,SSE,148,3.0,7.0,35,0.00,,,0.00,Wunderground v.1.15,2013-04-07 04:42:00,
2013-04-07 00:43:00,45.7,19.6,30.04,East,101,3.0,7.0,35,0.00,,,0.00,Wunderground v.1.15,2013-04-07 04:43:00,
2013-04-07 00:47:00,45.8,19.7,30.04,SE,143,3.0,7.0,35,0.00,,,0.00,Wunderground v.1.15,2013-04-07 04:47:00,
2013-04-07 00:48:00,45.8,19.7,30.04,SSE,148,3.0,7.0,35,0.00,,,0.00,Wunderground v.1.15,2013-04-07 04:48:00,
2013-04-07 00:49:00,45.8,19.7,30.04,SSW,207,3.0,7.0,35,0.00,,,0.00,Wunderground v.1.15,2013-04-07 04:49:00,
2013-04-07 00:50:00,45.8,19.7,30.04,SE,136,3.0,3.0,35,0.00,,,0.00,Wunderground v.1.15,2013-04-07 04:50:00,
2013-04-07 00:53:00,45.8,19.7,30.04,SSE,163,2.0,3.0,35,0.00,,,0.00,Wunderground v.1.15,2013-04-07 04:53:00,
2013-04-07 00:55:00,45.8,19.7,30.04,East,96,2.0,3.0,35,0.00,,,0.00,Wunderground v.1.15,2013-04-07 04:55:00,
2013-04-07 00:59:00,45.8,19.7,30.04,SE,127,2.0,3.0,35,0.00,,,0.00,Wunderground v.1.15,2013-04-07 04:59:00,
2013-04-07 01:00:00,45.9,19.8,30.03,ESE,114,2.0,2.0,35,0.00,,,0.00,Wunderground v.1.15,2013-04-07 05:00:00,
2013-04-07 01:02:00,45.9,19.8,30.03,SE,138,2.0,3.0,35,0.00,,,0.00,Wunderground v.1.15,2013-04-07 05:02:00,
2013-04-07 01:04:00,45.9,20.4,30.03,SSE,152,2.0,4.0,36,0.00,,,0.00,Wunderground v.1.15,2013-04-07 05:04:00,
2013-04-07 01:07:00,46.0,19.8,30.03,East,86,2.0,4.0,35,0.00,,,0.00,Wunderground v.1.15,2013-04-07 05:07:00,
2013-04-07 01:08:00,46.0,19.8,30.03,SSE,158,2.0,4.0,35,0.00,,,0.00,Wunderground v.1.15,2013-04-07 05:08:00,
2013-04-07 01:10:00,46.0,19.8,30.02,ESE,105,3.0,4.0,35,0.00,,,0.00,Wunderground v.1.15,2013-04-07 05:10:00,
2013-04-07 01:13:00,46.1,19.9,30.02,South,184,3.0,5.0,35,0.00,,,0.00,Wunderground v.1.15,2013-04-07 05:13:00,
2013-04-07 01:16:00,46.1,20.6,30.02,SE,145,4.0,5.0,36,0.00,,,0.00,Wunderground v.1.15,2013-04-07 05:16:00,
2013-04-07 01:17:00,46.1,20.6,30.02,SE,135,4.0,5.0,36,0.00,,,0.00,Wunderground v.1.15,2013-04-07 05:17:00,
2013-04-07 01:18:00,46.2,20.7,30.02,ESE,110,3.0,5.0,36,0.00,,,0.00,Wunderground v.1.15,2013-04-07 05:18:00,
2013-04-07 01:19:00,46.2,20.7,30.02,SSE,161,3.0,5.0,36,0.00,,,0.00,Wunderground v.1.15,2013-04-07 05:19:00,
2013-04-07 01:21:00,46.2,20.0,30.02,South,170,3.0,3.0,35,0.00,,,0.00,Wunderground v.1.15,2013-04-07 05:21:00,
2013-04-07 01:24:00,46.2,20.0,30.01,SE,135,3.0,6.0,35,0.00,,,0.00,Wunderground v.1.15,2013-04-07 05:24:00,
2013-04-07 01:26:00,46.3,20.8,30.01,East,89,3.0,6.0,36,0.00,,,0.00,Wunderground v.1.15,2013-04-07 05:26:00,
2013-04-07 01:28:00,46.3,20.8,30.01,SSE,155,3.0,6.0,36,0.00,,,0.00,Wunderground v.1.15,2013-04-07 05:28:00,
2013-04-07 01:31:00,46.4,20.9,30.01,SSE,167,4.0,4.0,36,0.00,,,0.00,Wunderground v.1.15,2013-04-07 05:31:00,
2013-04-07 01:32:00,46.3,20.8,30.01,SE,129,4.0,4.0,36,0.00,,,0.00,Wunderground v.1.15,2013-04-07 05:32:00,
2013-04-07 01:36:00,46.4,20.9,30.01,ENE,77,3.0,4.0,36,0.00,,,0.00,Wunderground v.1.15,2013-04-07 05:36:00,
2013-04-07 01:42:00,46.3,20.8,30.00,SSE,156,3.0,7.0,36,0.00,,,0.00,Wunderground v.1.15,2013-04-07 05:42:00,
2013-04-07 01:43:00,46.3,21.4,30.00,SSE,153,3.0,7.0,37,0.00,,,0.00,Wunderground v.1.15,2013-04-07 05:43:00,
2013-04-07 01:44:00,46.3,21.4,30.00,East,91,3.0,7.0,37,0.00,,,0.00,Wunderground v.1.15,2013-04-07 05:44:00,
2013-04-07 01:48:00,46.2,21.3,30.00,SSE,148,3.0,7.0,37,0.00,,,0.00,Wunderground v.1.15,2013-04-07 05:48:00,
2013-04-07 01:49:00,46.2,21.3,29.99,SE,125,3.0,7.0,37,0.00,,,0.00,Wunderground v.1.15,2013-04-07 05:49:00,
2013-04-07 01:51:00,46.3,21.4,30.00,SSW,207,2.0,2.0,37,0.00,,,0.00,Wunderground v.1.15,2013-04-07 05:51:00,
2013-04-07 01:53:00,46.3,21.4,29.99,SSW,193,2.0,2.0,37,0.00,,,0.00,Wunderground v.1.15,2013-04-07 05:53:00,
2013-04-07 01:55:00,46.4,21.5,29.99,SSE,160,2.0,3.0,37,0.00,,,0.00,Wunderground v.1.15,2013-04-07 05:55:00,
2013-04-07 01:59:00,46.4,22.1,29.99,ENE,65,3.0,6.0,38,0.00,,,0.00,Wunderground v.1.15,2013-04-07 05:59:00,
2013-04-07 02:00:00,46.5,21.6,29.99,SSE,148,3.0,3.0,37,0.00,,,0.00,Wunderground v.1.15,2013-04-07 06:00:00,
2013-04-07 02:01:00,46.5,21.6,29.99,SSE,149,3.0,6.0,37,0.00,,,0.00,Wunderground v.1.15,2013-04-07 06:01:00,
2013-04-07 02:02:00,46.6,21.7,29.99,SE,136,3.0,6.0,37,0.00,,,0.00,Wunderground v.1.15,2013-04-07 06:02:00,
2013-04-07 02:06:00,46.7,21.8,29.99,ESE,120,3.0,6.0,37,0.00,,,0.00,Wunderground v.1.15,2013-04-07 06:06:00,
2013-04-07 02:07:00,46.7,21.8,29.99,SSE,153,3.0,6.0,37,0.00,,,0.00,Wunderground v.1.15,2013-04-07 06:07:00,
2013-04-07 02:08:00,46.6,21.7,29.99,SE,133,3.0,6.0,37,0.00,,,0.00,Wunderground v.1.15,2013-04-07 06:08:00,
2013-04-07 02:12:00,46.7,22.4,29.98,SSW,208,3.0,6.0,38,0.00,,,0.00,Wunderground v.1.15,2013-04-07 06:12:00,
2013-04-07 02:13:00,46.7,22.4,29.98,ESE,119,3.0,6.0,38,0.00,,,0.00,Wunderground v.1.15,2013-04-07 06:13:00,
2013-04-07 02:15:00,46.8,23.1,29.98,SSE,150,3.0,6.0,39,0.00,,,0.00,Wunderground v.1.15,2013-04-07 06:15:00,
2013-04-07 02:17:00,46.8,23.1,29.98,SE,131,3.0,6.0,39,0.00,,,0.00,Wunderground v.1.15,2013-04-07 06:17:00,
2013-04-07 02:20:00,46.9,22.6,29.98,East,83,3.0,3.0,38,0.00,,,0.00,Wunderground v.1.15,2013-04-07 06:20:00,
2013-04-07 02:22:00,47.0,22.7,29.97,SSE,161,3.0,6.0,38,0.00,,,0.00,Wunderground v.1.15,2013-04-07 06:22:00,
2013-04-07 02:25:00,47.3,22.3,29.97,SW,235,3.0,6.0,37,0.00,,,0.00,Wunderground v.1.15,2013-04-07 06:25:00,
2013-04-07 02:27:00,47.4,22.4,29.97,South,174,3.0,6.0,37,0.00,,,0.00,Wunderground v.1.15,2013-04-07 06:27:00,
2013-04-07 02:29:00,47.6,21.9,29.97,SSE,149,3.0,6.0,36,0.00,,,0.00,Wunderground v.1.15,2013-04-07 06:29:00,
2013-04-07 02:32:00,48.0,22.3,29.97,East,85,4.0,8.0,36,0.00,,,0.00,Wunderground v.1.15,2013-04-07 06:32:00,
2013-04-07 02:34:00,48.2,22.5,29.96,South,169,4.0,8.0,36,0.00,,,0.00,Wunderground v.1.15,2013-04-07 06:34:00,
2013-04-07 02:35:00,48.3,21.9,29.96,South,169,4.0,8.0,35,0.00,,,0.00,Wunderground v.1.15,2013-04-07 06:35:00,
2013-04-07 02:38:00,48.5,22.1,29.95,SSE,165,4.0,8.0,35,0.00,,,0.00,Wunderground v.1.15,2013-04-07 06:38:00,
2013-04-07 02:40:00,48.6,22.1,29.96,SE,132,4.0,8.0,35,0.00,,,0.00,Wunderground v.1.15,2013-04-07 06:40:00,
2013-04-07 02:41:00,48.7,22.2,29.96,SSE,155,4.0,9.0,35,0.00,,,0.00,Wunderground v.1.15,2013-04-07 06:41:00,
2013-04-07 02:44:00,49.0,22.5,29.96,SW,222,5.0,9.0,35,0.00,,,0.00,Wunderground v.1.15,2013-04-07 06:44:00,
2013-04-07 02:46:00,49.1,22.6,29.96,SSW,198,5.0,9.0,35,0.00,,,0.00,Wunderground v.1.15,2013-04-07 06:46:00,
2013-04-07 02:47:00,49.1,22.6,29.96,SW,218,5.0,9.0,35,0.00,,,0.00,Wunderground v.1.15,2013-04-07 06:47:00,
2013-04-07 02:48:00,49.2,22.7,29.96,SSE,150,5.0,9.0,35,0.00,,,0.00,Wunderground v.1.15,2013-04-07 06:48:00,
2013-04-07 02:49:00,49.2,22.0,29.96,South,188,5.0,9.0,34,0.00,,,0.00,Wunderground v.1.15,2013-04-07 06:49:00,
2013-04-07 02:53:00,49.5,22.9,29.95,SW,217,5.0,9.0,35,0.00,,,0.00,Wunderground v.1.15,2013-04-07 06:53:00,
2013-04-07 02:57:00,49.6,22.3,29.95,SSW,197,6.0,9.0,34,0.00,,,0.00,Wunderground v.1.15,2013-04-07 06:57:00,
2013-04-07 02:59:00,49.7,22.4,29.95,South,181,6.0,14.0,34,0.00,,,0.00,Wunderground v.1.15,2013-04-07 06:59:00,
2013-04-07 03:00:00,49.8,21.8,29.95,South,181,6.0,13.0,33,0.00,,,0.00,Wunderground v.1.15,2013-04-07 07:00:00,
2013-04-07 03:02:00,49.9,21.9,29.94,East,97,6.0,13.0,33,0.00,,,0.00,Wunderground v.1.15,2013-04-07 07:02:00,
2013-04-07 03:03:00,49.9,21.9,29.94,South,177,7.0,13.0,33,0.00,,,0.00,Wunderground v.1.15,2013-04-07 07:03:00,
2013-04-07 03:08:00,50.0,22.0,29.94,South,177,7.0,13.0,33,0.00,,,0.00,Wunderground v.1.15,2013-04-07 07:08:00,
2013-04-07 03:10:00,50.0,22.0,29.94,SE,139,6.0,10.0,33,0.00,,,0.00,Wunderground v.1.15,2013-04-07 07:10:00,
2013-04-07 03:11:00,50.0,22.0,29.93,SE,141,6.0,10.0,33,0.00,,,0.00,Wunderground v.1.15,2013-04-07 07:11:00,
2013-04-07 03:14:00,50.0,22.0,29.93,South,184,6.0,10.0,33,0.00,,,0.00,Wunderground v.1.15,2013-04-07 07:14:00,
2013-04-07 03:17:00,50.1,22.1,29.94,SSE,159,6.0,14.0,33,0.00,,,0.00,Wunderground v.1.15,2013-04-07 07:17:00,
2013-04-07 03:18:00,50.1,22.1,29.93,SSW,211,6.0,14.0,33,0.00,,,0.00,Wunderground v.1.15,2013-04-07 07:18:00,
2013-04-07 03:20:00,50.1,22.1,29.93,SSE,161,6.0,7.0,33,0.00,,,0.00,Wunderground v.1.15,2013-04-07 07:20:00,
2013-04-07 03:21:00,50.1,22.1,29.93,SSW,194,6.0,7.0,33,0.00,,,0.00,Wunderground v.1.15,2013-04-07 07:21:00,
2013-04-07 03:24:00,50.2,22.2,29.93,SSE,148,7.0,10.0,33,0.00,,,0.00,Wunderground v.1.15,2013-04-07 07:24:00,
2013-04-07 03:26:00,50.2,22.2,29.93,ESE,115,7.0,10.0,33,0.00,,,0.00,Wunderground v.1.15,2013-04-07 07:26:00,
2013-04-07 03:27:00,50.1,22.1,29.93,SSW,197,7.0,10.0,33,0.00,,,0.00,Wunderground v.1.15,2013-04-07 07:27:00,
2013-04-07 03:32:00,50.1,22.8,29.92,East,101,6.0,6.0,34,0.00,,,0.00,Wunderground v.1.15,2013-04-07 07:32:00,
2013-04-07 03:34:00,50.1,22.1,29.92,ESE,120,5.0,11.0,33,0.00,,,0.00,Wunderground v.1.15,2013-04-07 07:34:00,
2013-04-07 03:35:00,50.2,22.2,29.92,SSW,200,5.0,11.0,33,0.00,,,0.00,Wunderground v.1.15,2013-04-07 07:35:00,
2013-04-07 03:36:00,50.2,22.2,29.92,SSE,148,6.0,11.0,33,0.00,,,0.00,Wunderground v.1.15,2013-04-07 07:36:00,
2013-04-07 03:39:00,50.3,22.3,29.92,South,179,5.0,11.0,33,0.00,,,0.00,Wunderground v.1.15,2013-04-07 07:39:00,
2013-04-07 03:41:00,50.3,22.3,29.92,SE,127,6.0,6.0,33,0.00,,,0.00,Wunderground v.1.15,2013-04-07 07:41:00,
2013-04-07 03:43:00,50.3,22.3,29.92,SSE,165,6.0,6.0,33,0.00,,,0.00,Wunderground v.1.15,2013-04-07 07:43:00,
2013-04-07 03:45:00,50.3,22.3,29.92,SE,128,6.0,6.0,33,0.00,,,0.00,Wunderground v.1.15,2013-04-07 07:45:00,
2013-04-07 03:46:00,50.3,22.3,29.92,SSE,165,6.0,6.0,33,0.00,,,0.00,Wunderground v.1.15,2013-04-07 07:46:00,
2013-04-07 03:47:00,50.3,22.3,29.92,SSW,200,5.0,6.0,33,0.00,,,0.00,Wunderground v.1.15,2013-04-07 07:47:00,
2013-04-07 03:50:00,50.3,22.3,29.92,South,177,6.0,6.0,33,0.00,,,0.00,Wunderground v.1.15,2013-04-07 07:50:00,
2013-04-07 03:52:00,50.3,22.3,29.92,South,181,6.0,9.0,33,0.00,,,0.00,Wunderground v.1.15,2013-04-07 07:52:00,
2013-04-07 03:54:00,50.3,22.3,29.92,SSW,203,6.0,9.0,33,0.00,,,0.00,Wunderground v.1.15,2013-04-07 07:54:00,
2013-04-07 03:56:00,50.3,22.3,29.92,SSE,165,7.0,9.0,33,0.00,,,0.00,Wunderground v.1.15,2013-04-07 07:56:00,
2013-04-07 03:59:00,50.2,22.2,29.92,South,174,7.0,9.0,33,0.00,,,0.00,Wunderground v.1.15,2013-04-07 07:59:00,
2013-04-07 04:00:00,50.1,22.1,29.92,SE,133,7.0,7.0,33,0.00,,,0.00,Wunderground v.1.15,2013-04-07 08:00:00,
2013-04-07 04:03:00,50.1,22.1,29.92,SW,217,7.0,15.0,33,0.00,,,0.00,Wunderground v.1.15,2013-04-07 08:03:00,
2013-04-07 04:07:00,50.1,22.1,29.92,ESE,110,7.0,15.0,33,0.00,,,0.00,Wunderground v.1.15,2013-04-07 08:07:00,
2013-04-07 04:09:00,50.1,22.1,29.91,SSW,195,7.0,15.0,33,0.00,,,0.00,Wunderground v.1.15,2013-04-07 08:09:00,
2013-04-07 04:10:00,50.1,22.1,29.91,SSE,160,7.0,8.0,33,0.00,,,0.00,Wunderground v.1.15,2013-04-07 08:10:00,
2013-04-07 04:15:00,50.0,22.0,29.91,SSE,161,6.0,8.0,33,0.00,,,0.00,Wunderground v.1.15,2013-04-07 08:15:00,
2013-04-07 04:17:00,50.0,22.0,29.91,South,190,6.0,8.0,33,0.00,,,0.00,Wunderground v.1.15,2013-04-07 08:17:00,
2013-04-07 04:20:00,50.0,22.0,29.91,SSE,149,5.0,5.0,33,0.00,,,0.00,Wunderground v.1.15,2013-04-07 08:20:00,
2013-04-07 04:21:00,50.0,22.0,29.91,SSE,152,6.0,6.0,33,0.00,,,0.00,Wunderground v.1.15,2013-04-07 08:21:00,
2013-04-07 04:22:00,50.0,22.0,29.91,SE,143,6.0,9.0,33,0.00,,,0.00,Wunderground v.1.15,2013-04-07 08:22:00,
2013-04-07 04:26:00,49.9,22.6,29.91,South,184,6.0,9.0,34,0.00,,,0.00,Wunderground v.1.15,2013-04-07 08:26:00,
2013-04-07 04:30:00,49.9,22.6,29.91,SSE,152,6.0,9.0,34,0.00,,,0.00,Wunderground v.1.15,2013-04-07 08:30:00,
2013-04-07 04:33:00,50.0,22.7,29.91,East,80,6.0,11.0,34,0.00,,,0.00,Wunderground v.1.15,2013-04-07 08:33:00,
2013-04-07 04:34:00,50.0,22.7,29.91,South,188,6.0,11.0,34,0.00,,,0.00,Wunderground v.1.15,2013-04-07 08:34:00,
2013-04-07 04:35:00,49.9,22.6,29.91,South,172,6.0,11.0,34,0.00,,,0.00,Wunderground v.1.15,2013-04-07 08:35:00,
2013-04-07 04:37:00,50.0,22.7,29.91,South,184,6.0,11.0,34,0.00,,,0.00,Wunderground v.1.15,2013-04-07 08:37:00,
2013-04-07 04:40:00,49.9,22.6,29.90,SE,139,5.0,6.0,34,0.00,,,0.00,Wunderground v.1.15,2013-04-07 08:40:00,
2013-04-07 04:43:00,49.8,22.5,29.90,SE,138,5.0,6.0,34,0.00,,,0.00,Wunderground v.1.15,2013-04-07 08:43:00,
2013-04-07 04:44:00,49.8,22.5,29.90,SE,134,5.0,6.0,34,0.00,,,0.00,Wunderground v.1.15,2013-04-07 08:44:00,
2013-04-07 04:45:00,49.8,22.5,29.90,South,170,4.0,6.0,34,0.00,,,0.00,Wunderground v.1.15,2013-04-07 08:45:00,
2013-04-07 04:49:00,49.8,22.5,29.90,SE,130,4.0,8.0,34,0.00,,,0.00,Wunderground v.1.15,2013-04-07 08:49:00,
2013-04-07 04:50:00,49.8,23.2,29.90,South,170,5.0,5.0,35,0.00,,,0.00,Wunderground v.1.15,2013-04-07 08:50:00,
2013-04-07 04:52:00,49.8,23.2,29.90,SSW,200,5.0,7.0,35,0.00,,,0.00,Wunderground v.1.15,2013-04-07 08:52:00,
2013-04-07 04:54:00,49.8,22.5,29.90,South,184,5.0,7.0,34,0.00,,,0.00,Wunderground v.1.15,2013-04-07 08:54:00,
2013-04-07 04:55:00,49.8,23.2,29.90,ESE,122,5.0,7.0,35,0.00,,,0.00,Wunderground v.1.15,2013-04-07 08:55:00,
2013-04-07 04:58:00,49.9,23.3,29.90,SSE,147,6.0,7.0,35,0.00,,,0.00,Wunderground v.1.15,2013-04-07 08:58:00,
2013-04-07 05:00:00,49.9,23.3,29.90,SSE,159,5.0,8.0,35,0.00,,,0.00,Wunderground v.1.15,2013-04-07 09:00:00,
2013-04-07 05:05:00,49.9,23.3,29.89,SSE,155,6.0,16.0,35,0.00,,,0.00,Wunderground v.1.15,2013-04-07 09:05:00,
2013-04-07 05:06:00,49.9,23.3,29.89,SSW,201,6.0,16.0,35,0.00,,,0.00,Wunderground v.1.15,2013-04-07 09:06:00,
2013-04-07 05:09:00,49.9,23.3,29.89,SE,135,6.0,16.0,35,0.00,,,0.00,Wunderground v.1.15,2013-04-07 09:09:00,
2013-04-07 05:10:00,49.9,23.3,29.89,SSW,195,5.0,5.0,35,0.00,,,0.00,Wunderground v.1.15,2013-04-07 09:10:00,
2013-04-07 05:14:00,49.9,23.3,29.89,SSW,193,6.0,16.0,35,0.00,,,0.00,Wunderground v.1.15,2013-04-07 09:14:00,
2013-04-07 05:16:00,50.0,23.4,29.89,SW,222,6.0,16.0,35,0.00,,,0.00,Wunderground v.1.15,2013-04-07 09:16:00,
2013-04-07 05:18:00,50.0,23.4,29.89,SSW,200,6.0,16.0,35,0.00,,,0.00,Wunderground v.1.15,2013-04-07 09:18:00,
2013-04-07 05:20:00,50.0,23.4,29.89,SE,124,6.0,6.0,35,0.00,,,0.00,Wunderground v.1.15,2013-04-07 09:20:00,
2013-04-07 05:22:00,50.0,23.4,29.88,SE,132,6.0,16.0,35,0.00,,,0.00,Wunderground v.1.15,2013-04-07 09:22:00,
2013-04-07 05:27:00,50.0,24.1,29.88,South,179,5.0,16.0,36,0.00,,,0.00,Wunderground v.1.15,2013-04-07 09:27:00,
2013-04-07 05:28:00,50.0,23.4,29.88,South,186,5.0,16.0,35,0.00,,,0.00,Wunderground v.1.15,2013-04-07 09:28:00,
2013-04-07 05:30:00,50.0,23.4,29.88,South,176,5.0,16.0,35,0.00,,,0.00,Wunderground v.1.15,2013-04-07 09:30:00,
2013-04-07 05:31:00,50.0,24.1,29.88,SE,135,5.0,16.0,36,0.00,,,0.00,Wunderground v.1.15,2013-04-07 09:31:00,
2013-04-07 05:33:00,50.0,24.1,29.88,SSE,159,4.0,16.0,36,0.00,,,0.00,Wunderground v.1.15,2013-04-07 09:33:00,
2013-04-07 05:34:00,49.9,24.0,29.88,SE,125,4.0,16.0,36,0.00,,,0.00,Wunderground v.1.15,2013-04-07 09:34:00,
2013-04-07 05:38:00,50.0,24.1,29.88,SE,135,5.0,16.0,36,0.00,,,0.00,Wunderground v.1.15,2013-04-07 09:38:00,
2013-04-07 05:39:00,50.0,24.1,29.88,SSE,155,5.0,16.0,36,0.00,,,0.00,Wunderground v.1.15,2013-04-07 09:39:00,
2013-04-07 05:40:00,50.0,24.1,29.88,SSW,207,5.0,5.0,36,0.00,,,0.00,Wunderground v.1.15,2013-04-07 09:40:00,
2013-04-07 05:43:00,50.0,24.1,29.87,SW,215,5.0,16.0,36,0.00,,,0.00,Wunderground v.1.15,2013-04-07 09:43:00,
2013-04-07 05:45:00,50.0,24.1,29.88,South,169,5.0,16.0,36,0.00,,,0.00,Wunderground v.1.15,2013-04-07 09:45:00,
2013-04-07 05:48:00,50.2,24.2,29.87,West,263,5.0,16.0,36,0.00,,,0.00,Wunderground v.1.15,2013-04-07 09:48:00,
2013-04-07 05:49:00,50.2,24.2,29.87,South,183,5.0,16.0,36,0.00,,,0.00,Wunderground v.1.15,2013-04-07 09:49:00,
2013-04-07 05:52:00,50.4,24.4,29.87,SSW,195,6.0,16.0,36,0.00,,,0.00,Wunderground v.1.15,2013-04-07 09:52:00,
2013-04-07 05:54:00,50.5,24.5,29.88,West,269,6.0,16.0,36,0.00,,,0.00,Wunderground v.1.15,2013-04-07 09:54:00,
2013-04-07 05:56:00,50.6,23.9,29.87,SE,141,6.0,16.0,35,0.00,,,0.00,Wunderground v.1.15,2013-04-07 09:56:00,
2013-04-07 05:57:00,50.7,24.0,29.87,South,175,7.0,16.0,35,0.00,,,0.00,Wunderground v.1.15,2013-04-07 09:57:00,
2013-04-07 05:58:00,50.7,24.7,29.87,South,183,7.0,16.0,36,0.00,,,0.00,Wunderground v.1.15,2013-04-07 09:58:00,
2013-04-07 06:02:00,50.8,24.8,29.87,SE,140,6.0,16.0,36,0.00,,,0.00,Wunderground v.1.15,2013-04-07 10:02:00,
2013-04-07 06:03:00,50.9,24.2,29.87,SSW,201,6.0,16.0,35,0.00,,,0.00,Wunderground v.1.15,2013-04-07 10:03:00,
2013-04-07 06:04:00,50.9,24.2,29.87,South,188,6.0,16.0,35,0.00,,,0.00,Wunderground v.1.15,2013-04-07 10:04:00,
2013-04-07 06:05:00,50.9,24.2,29.87,South,177,6.0,16.0,35,0.00,,,0.00,Wunderground v.1.15,2013-04-07 10:05:00,
2013-04-07 06:09:00,51.0,25.0,29.86,South,191,6.0,16.0,36,0.00,,,0.00,Wunderground v.1.15,2013-04-07 10:09:00,
2013-04-07 06:14:00,51.1,25.0,29.87,SE,141,7.0,16.0,36,0.00,,,0.00,Wunderground v.1.15,2013-04-07 10:14:00,
2013-04-07 06:17:00,51.1,25.0,29.86,South,190,7.0,16.0,36,0.00,,,0.00,Wunderground v.1.15,2013-04-07 10:17:00,
2013-04-07 06:19:00,51.1,25.0,29.86,SSW,212,7.0,16.0,36,0.00,,,0.00,Wunderground v.1.15,2013-04-07 10:19:00,
2013-04-07 06:23:00,51.2,25.1,29.86,SW,225,7.0,16.0,36,0.00,,,0.00,Wunderground v.1.15,2013-04-07 10:23:00,
2013-04-07 06:24:00,51.2,25.1,29.86,SSE,160,7.0,16.0,36,0.00,,,0.00,Wunderground v.1.15,2013-04-07 10:24:00,
2013-04-07 06:25:00,51.2,25.1,29.86,SSE,148,7.0,16.0,36,0.00,,,0.00,Wunderground v.1.15,2013-04-07 10:25:00,
2013-04-07 06:29:00,51.2,25.1,29.86,SSW,203,7.0,16.0,36,0.00,,,0.00,Wunderground v.1.15,2013-04-07 10:29:00,
2013-04-07 06:30:00,51.2,25.1,29.86,SE,134,7.0,16.0,36,0.00,,,0.00,Wunderground v.1.15,2013-04-07 10:30:00,
2013-04-07 06:31:00,51.2,25.1,29.86,SW,224,6.0,16.0,36,0.00,,,0.00,Wunderground v.1.15,2013-04-07 10:31:00,
2013-04-07 06:35:00,51.2,25.1,29.86,SW,232,5.0,16.0,36,0.00,,,0.00,Wunderground v.1.15,2013-04-07 10:35:00,
2013-04-07 06:36:00,51.2,25.1,29.86,SW,217,5.0,16.0,36,0.00,,,0.00,Wunderground v.1.15,2013-04-07 10:36:00,
2013-04-07 06:37:00,51.2,25.1,29.86,SSE,163,5.0,16.0,36,0.00,,,0.00,Wunderground v.1.15,2013-04-07 10:37:00,
2013-04-07 06:38:00,51.1,25.0,29.86,SSE,165,5.0,16.0,36,0.00,,,0.00,Wunderground v.1.15,2013-04-07 10:38:00,
2013-04-07 06:42:00,51.1,25.7,29.86,SSW,212,4.0,16.0,37,0.00,,,0.00,Wunderground v.1.15,2013-04-07 10:42:00,
2013-04-07 06:44:00,51.1,25.7,29.86,South,182,4.0,16.0,37,0.00,,,0.00,Wunderground v.1.15,2013-04-07 10:44:00,
2013-04-07 06:45:00,51.1,25.7,29.86,SSE,167,4.0,16.0,37,0.00,,,0.00,Wunderground v.1.15,2013-04-07 10:45:00,
2013-04-07 06:48:00,51.2,25.8,29.85,SSW,201,5.0,16.0,37,0.00,,,0.00,Wunderground v.1.15,2013-04-07 10:48:00,
2013-04-07 06:50:00,51.2,25.8,29.85,SE,138,5.0,16.0,37,0.00,,,0.00,Wunderground v.1.15,2013-04-07 10:50:00,
2013-04-07 06:51:00,51.3,25.9,29.85,SSW,204,6.0,16.0,37,0.00,,,0.00,Wunderground v.1.15,2013-04-07 10:51:00,
2013-04-07 06:52:00,51.3,25.9,29.85,SW,221,6.0,16.0,37,0.00,,,0.00,Wunderground v.1.15,2013-04-07 10:52:00,
2013-04-07 06:56:00,51.3,25.9,29.85,SE,146,6.0,16.0,37,0.00,,,0.00,Wunderground v.1.15,2013-04-07 10:56:00,
2013-04-07 06:57:00,51.3,25.9,29.85,South,181,6.0,16.0,37,0.00,,,0.00,Wunderground v.1.15,2013-04-07 10:57:00,
2013-04-07 07:00:00,51.3,25.9,29.85,SW,217,6.0,6.0,37,0.00,,,0.00,Wunderground v.1.15,2013-04-07 11:00:00,
2013-04-07 07:02:00,51.2,25.8,29.86,SSE,168,5.0,16.0,37,0.00,,,0.00,Wunderground v.1.15,2013-04-07 11:02:00,
2013-04-07 07:05:00,51.2,25.8,29.85,South,180,5.0,16.0,37,0.00,,,0.00,Wunderground v.1.15,2013-04-07 11:05:00,
2013-04-07 07:07:00,51.2,26.4,29.85,SSW,202,5.0,16.0,38,0.00,,,0.00,Wunderground v.1.15,2013-04-07 11:07:00,
2013-04-07 07:08:00,51.1,26.3,29.85,SW,217,5.0,16.0,38,0.00,,,0.00,Wunderground v.1.15,2013-04-07 11:08:00,
2013-04-07 07:09:00,51.1,26.3,29.85,SE,145,5.0,16.0,38,0.00,,,0.00,Wunderground v.1.15,2013-04-07 11:09:00,
2013-04-07 07:11:00,51.1,25.7,29.85,SSE,153,5.0,16.0,37,0.00,,,0.00,Wunderground v.1.15,2013-04-07 11:11:00,
2013-04-07 07:13:00,51.1,26.3,29.85,South,183,5.0,16.0,38,0.00,,,0.00,Wunderground v.1.15,2013-04-07 11:13:00,
2013-04-07 07:15:00,51.1,26.3,29.85,South,176,5.0,16.0,38,0.00,,,0.00,Wunderground v.1.15,2013-04-07 11:15:00,
2013-04-07 07:16:00,51.0,26.3,29.85,SW,231,4.0,16.0,38,0.00,,,0.00,Wunderground v.1.15,2013-04-07 11:16:00,
2013-04-07 07:17:00,51.0,26.3,29.85,SSW,204,5.0,16.0,38,0.00,,,0.00,Wunderground v.1.15,2013-04-07 11:17:00,
2013-04-07 07:23:00,51.0,26.3,29.85,SSE,159,5.0,16.0,38,0.00,,,0.00,Wunderground v.1.15,2013-04-07 11:23:00,
2013-04-07 07:24:00,51.0,26.3,29.85,South,169,5.0,16.0,38,0.00,,,0.00,Wunderground v.1.15,2013-04-07 11:24:00,
2013-04-07 07:25:00,51.0,26.3,29.84,SSE,167,5.0,16.0,38,0.00,,,0.00,Wunderground v.1.15,2013-04-07 11:25:00,
2013-04-07 07:30:00,51.1,26.3,29.84,SSE,149,5.0,5.0,38,0.00,,,0.00,Wunderground v.1.15,2013-04-07 11:30:00,
2013-04-07 07:31:00,51.1,26.3,29.84,SE,134,5.0,7.0,38,0.00,,,0.00,Wunderground v.1.15,2013-04-07 11:31:00,
2013-04-07 07:33:00,51.1,26.3,29.84,South,181,5.0,16.0,38,0.00,,,0.00,Wunderground v.1.15,2013-04-07 11:33:00,
2013-04-07 07:35:00,51.2,26.4,29.84,SSW,208,5.0,16.0,38,0.00,,,0.00,Wunderground v.1.15,2013-04-07 11:35:00,
2013-04-07 07:36:00,51.2,26.4,29.84,SE,132,5.0,16.0,38,0.00,,,0.00,Wunderground v.1.15,2013-04-07 11:36:00,
2013-04-07 07:37:00,51.2,26.4,29.84,SSE,156,5.0,16.0,38,0.00,,,0.00,Wunderground v.1.15,2013-04-07 11:37:00,
2013-04-07 07:39:00,51.2,26.4,29.84,SSE,162,5.0,16.0,38,0.00,,,0.00,Wunderground v.1.15,2013-04-07 11:39:00,
2013-04-07 07:41:00,51.2,26.4,29.84,SE,128,6.0,16.0,38,0.00,,,0.00,Wunderground v.1.15,2013-04-07 11:41:00,
2013-04-07 07:42:00,51.2,26.4,29.83,SSW,211,6.0,16.0,38,0.00,,,0.00,Wunderground v.1.15,2013-04-07 11:42:00,
2013-04-07 07:45:00,51.3,26.5,29.84,South,170,6.0,16.0,38,0.00,,,0.00,Wunderground v.1.15,2013-04-07 11:45:00,
2013-04-07 07:46:00,51.3,26.5,29.84,SSE,148,6.0,16.0,38,0.00,,,0.00,Wunderground v.1.15,2013-04-07 11:46:00,
2013-04-07 07:48:00,51.3,26.5,29.83,South,174,5.0,16.0,38,0.00,,,0.00,Wunderground v.1.15,2013-04-07 11:48:00,
2013-04-07 07:49:00,51.3,27.2,29.83,South,169,5.0,16.0,39,0.00,,,0.00,Wunderground v.1.15,2013-04-07 11:49:00,
2013-04-07 07:50:00,51.3,26.5,29.83,South,183,5.0,16.0,38,0.00,,,0.00,Wunderground v.1.15,2013-04-07 11:50:00,
2013-04-07 07:54:00,51.4,27.2,29.83,SSE,153,5.0,16.0,39,0.00,,,0.00,Wunderground v.1.15,2013-04-07 11:54:00,
2013-04-07 07:56:00,51.4,26.6,29.83,SE,139,5.0,16.0,38,0.00,,,0.00,Wunderground v.1.15,2013-04-07 11:56:00,
2013-04-07 07:57:00,51.4,26.6,29.83,SSW,194,5.0,16.0,38,0.00,,,0.00,Wunderground v.1.15,2013-04-07 11:57:00,
2013-04-07 07:59:00,51.5,27.3,29.84,South,177,5.0,16.0,39,0.00,,,0.00,Wunderground v.1.15,2013-04-07 11:59:00,
2013-04-07 08:03:00,51.5,26.7,29.83,SSW,200,6.0,16.0,38,0.00,,,0.00,Wunderground v.1.15,2013-04-07 12:03:00,
2013-04-07 08:04:00,51.5,27.3,29.83,SSE,158,6.0,16.0,39,0.00,,,0.00,Wunderground v.1.15,2013-04-07 12:04:00,
2013-04-07 08:05:00,51.6,26.8,29.83,SSW,207,6.0,16.0,38,0.00,,,0.00,Wunderground v.1.15,2013-04-07 12:05:00,
2013-04-07 08:06:00,51.6,27.4,29.83,SSW,212,6.0,16.0,39,0.00,,,0.00,Wunderground v.1.15,2013-04-07 12:06:00,
2013-04-07 08:09:00,51.6,27.4,29.83,SW,217,6.0,16.0,39,0.00,,,0.00,Wunderground v.1.15,2013-04-07 12:09:00,
2013-04-07 08:11:00,51.6,27.4,29.83,South,185,6.0,16.0,39,0.00,,,0.00,Wunderground v.1.15,2013-04-07 12:11:00,
2013-04-07 08:12:00,51.6,27.4,29.82,SE,129,6.0,16.0,39,0.00,,,0.00,Wunderground v.1.15,2013-04-07 12:12:00,
2013-04-07 08:13:00,51.6,27.4,29.83,South,172,6.0,16.0,39,0.00,,,0.00,Wunderground v.1.15,2013-04-07 12:13:00,
2013-04-07 08:15:00,51.6,27.4,29.83,South,186,6.0,16.0,39,0.00,,,0.00,Wunderground v.1.15,2013-04-07 12:15:00,
2013-04-07 08:20:00,51.7,27.5,29.82,SE,146,5.0,5.0,39,0.00,,,0.00,Wunderground v.1.15,2013-04-07 12:20:00,
2013-04-07 08:21:00,51.7,27.5,29.82,SW,215,5.0,7.0,39,0.00,,,0.00,Wunderground v.1.15,2013-04-07 12:21:00,
2013-04-07 08:23:00,51.8,27.6,29.82,SW,214,6.0,16.0,39,0.00,,,0.00,Wunderground v.1.15,2013-04-07 12:23:00,
2013-04-07 08:24:00,51.8,27.6,29.82,SSE,154,6.0,16.0,39,0.00,,,0.00,Wunderground v.1.15,2013-04-07 12:24:00,
2013-04-07 08:28:00,52.0,27.8,29.82,South,174,6.0,16.0,39,0.00,,,0.00,Wunderground v.1.15,2013-04-07 12:28:00,
2013-04-07 08:30:00,52.1,27.9,29.82,SSW,206,6.0,6.0,39,0.00,,,0.00,Wunderground v.1.15,2013-04-07 12:30:00,
2013-04-07 08:31:00,52.2,28.0,29.82,SSE,148,6.0,16.0,39,0.00,,,0.00,Wunderground v.1.15,2013-04-07 12:31:00,
2013-04-07 08:35:00,52.8,27.9,29.81,SW,225,6.0,16.0,38,0.00,,,0.00,Wunderground v.1.15,2013-04-07 12:35:00,
2013-04-07 08:36:00,52.9,28.0,29.82,SE,127,6.0,16.0,38,0.00,,,0.00,Wunderground v.1.15,2013-04-07 12:36:00,
2013-04-07 08:40:00,53.3,28.9,29.81,South,185,5.0,16.0,39,0.00,,,0.00,Wunderground v.1.15,2013-04-07 12:40:00,
2013-04-07 08:41:00,53.4,28.4,29.81,SSW,207,5.0,16.0,38,0.00,,,0.00,Wunderground v.1.15,2013-04-07 12:41:00,
2013-04-07 08:42:00,53.4,28.4,29.81,South,169,5.0,16.0,38,0.00,,,0.00,Wunderground v.1.15,2013-04-07 12:42:00,
2013-04-07 08:47:00,53.4,29.0,29.81,SE,136,5.0,16.0,39,0.00,,,0.00,Wunderground v.1.15,2013-04-07 12:47:00,
2013-04-07 08:48:00,53.3,28.3,29.81,South,181,5.0,16.0,38,0.00,,,0.00,Wunderground v.1.15,2013-04-07 12:48:00,
2013-04-07 08:51:00,53.2,28.9,29.81,SW,214,5.0,16.0,39,0.00,,,0.00,Wunderground v.1.15,2013-04-07 12:51:00,
2013-04-07 08:52:00,53.2,28.9,29.81,SE,134,5.0,16.0,39,0.00,,,0.00,Wunderground v.1.15,2013-04-07 12:52:00,
2013-04-07 08:54:00,53.2,28.9,29.81,SSE,149,5.0,16.0,39,0.00,,,0.00,Wunderground v.1.15,2013-04-07 12:54:00,
2013-04-07 08:57:00,53.1,28.8,29.81,WSW,246,5.0,16.0,39,0.00,,,0.00,Wunderground v.1.15,2013-04-07 12:57:00,
2013-04-07 08:59:00,53.1,29.4,29.81,SSW,194,4.0,16.0,40,0.00,,,0.00,Wunderground v.1.15,2013-04-07 12:59:00,
2013-04-07 09:00:00,53.2,28.9,29.80,SSW,195,4.0,16.0,39,0.00,,,0.00,Wunderground v.1.15,2013-04-07 13:00:00,
2013-04-07 09:04:00,53.3,29.6,29.80,SE,134,4.0,16.0,40,0.00,,,0.00,Wunderground v.1.15,2013-04-07 13:04:00,
2013-04-07 09:05:00,53.3,28.9,29.80,SSW,211,4.0,16.0,39,0.00,,,0.00,Wunderground v.1.15,2013-04-07 13:05:00,
2013-04-07 09:06:00,53.4,29.0,29.80,SSE,150,5.0,16.0,39,0.00,,,0.00,Wunderground v.1.15,2013-04-07 13:06:00,
2013-04-07 09:07:00,53.6,29.2,29.80,SE,141,5.0,16.0,39,0.00,,,0.00,Wunderground v.1.15,2013-04-07 13:07:00,
2013-04-07 09:10:00,54.0,29.6,29.80,SSW,208,5.0,5.0,39,0.00,,,0.00,Wunderground v.1.15,2013-04-07 13:10:00,
2013-04-07 09:11:00,54.1,29.7,29.80,SSW,195,5.0,16.0,39,0.00,,,0.00,Wunderground v.1.15,2013-04-07 13:11:00,
2013-04-07 09:17:00,54.4,29.3,29.79,ESE,111,5.0,16.0,38,0.00,,,0.00,Wunderground v.1.15,2013-04-07 13:17:00,
2013-04-07 09:18:00,54.4,29.3,29.79,South,186,6.0,16.0,38,0.00,,,0.00,Wunderground v.1.15,2013-04-07 13:18:00,
2013-04-07 09:19:00,54.5,30.0,29.80,SSW,200,6.0,16.0,39,0.00,,,0.00,Wunderground v.1.15,2013-04-07 13:19:00,
2013-04-07 09:21:00,54.5,30.0,29.79,SSW,201,7.0,16.0,39,0.00,,,0.00,Wunderground v.1.15,2013-04-07 13:21:00,
2013-04-07 09:24:00,54.7,29.6,29.79,SE,128,7.0,16.0,38,0.00,,,0.00,Wunderground v.1.15,2013-04-07 13:24:00,
2013-04-07 09:28:00,54.8,29.7,29.79,SSW,197,6.0,16.0,38,0.00,,,0.00,Wunderground v.1.15,2013-04-07 13:28:00,
2013-04-07 09:29:00,54.8,29.7,29.79,SSE,149,6.0,16.0,38,0.00,,,0.00,Wunderground v.1.15,2013-04-07 13:29:00,
2013-04-07 09:30:00,54.8,30.3,29.79,SSE,156,6.0,16.0,39,0.00,,,0.00,Wunderground v.1.15,2013-04-07 13:30:00,
2013-04-07 09:32:00,54.9,29.7,29.79,SE,141,6.0,16.0,38,0.00,,,0.00,Wunderground v.1.15,2013-04-07 13:32:00,
2013-04-07 09:35:00,55.1,30.6,29.79,SW,234,6.0,16.0,39,0.00,,,0.00,Wunderground v.1.15,2013-04-07 13:35:00,
2013-04-07 09:36:00,55.3,30.1,29.78,SW,236,6.0,16.0,38,0.00,,,0.00,Wunderground v.1.15,2013-04-07 13:36:00,
2013-04-07 09:37:00,55.4,30.8,29.78,South,176,6.0,16.0,39,0.00,,,0.00,Wunderground v.1.15,2013-04-07 13:37:00,
2013-04-07 09:41:00,56.1,30.8,29.78,South,173,6.0,7.0,38,0.00,,,0.00,Wunderground v.1.15,2013-04-07 13:41:00,
2013-04-07 09:43:00,56.3,30.3,29.78,SSW,205,6.0,16.0,37,0.00,,,0.00,Wunderground v.1.15,2013-04-07 13:43:00,
2013-04-07 09:47:00,56.4,30.4,29.78,SSW,197,7.0,16.0,37,0.00,,,0.00,Wunderground v.1.15,2013-04-07 13:47:00,
2013-04-07 09:48:00,56.5,30.5,29.78,South,172,6.0,16.0,37,0.00,,,0.00,Wunderground v.1.15,2013-04-07 13:48:00,
2013-04-07 09:50:00,56.8,30.8,29.78,SSE,159,7.0,16.0,37,0.00,,,0.00,Wunderground v.1.15,2013-04-07 13:50:00,
2013-04-07 09:54:00,57.6,31.5,29.78,SW,233,7.0,16.0,37,0.00,,,0.00,Wunderground v.1.15,2013-04-07 13:54:00,
2013-04-07 09:55:00,57.8,31.7,29.78,SSW,207,6.0,16.0,37,0.00,,,0.00,Wunderground v.1.15,2013-04-07 13:55:00,
2013-04-07 09:56:00,58.1,31.9,29.78,SW,219,6.0,16.0,37,0.00,,,0.00,Wunderground v.1.15,2013-04-07 13:56:00,
2013-04-07 10:00:00,58.8,31.9,29.78,WSW,241,6.0,6.0,36,0.00,,,0.00,Wunderground v.1.15,2013-04-07 14:00:00,
2013-04-07 10:01:00,58.9,32.0,29.78,SE,145,6.0,10.0,36,0.00,,,0.00,Wunderground v.1.15,2013-04-07 14:01:00,
2013-04-07 10:03:00,59.0,32.1,29.78,SSE,162,6.0,16.0,36,0.00,,,0.00,Wunderground v.1.15,2013-04-07 14:03:00,
2013-04-07 10:05:00,59.0,32.1,29.78,South,173,5.0,16.0,36,0.00,,,0.00,Wunderground v.1.15,2013-04-07 14:05:00,
2013-04-07 10:08:00,59.2,31.5,29.78,SW,224,5.0,16.0,35,0.00,,,0.00,Wunderground v.1.15,2013-04-07 14:08:00,
2013-04-07 10:10:00,59.4,31.7,29.78,SSW,204,6.0,6.0,35,0.00,,,0.00,Wunderground v.1.15,2013-04-07 14:10:00,
2013-04-07 10:13:00,59.6,31.9,29.77,SW,226,6.0,16.0,35,0.00,,,0.00,Wunderground v.1.15,2013-04-07 14:13:00,
2013-04-07 10:14:00,59.7,32.7,29.78,SSW,205,7.0,16.0,36,0.00,,,0.00,Wunderground v.1.15,2013-04-07 14:14:00,
2013-04-07 10:17:00,59.9,32.9,29.77,SSE,166,6.0,16.0,36,0.00,,,0.00,Wunderground v.1.15,2013-04-07 14:17:00,
2013-04-07 10:19:00,60.0,32.9,29.78,SSW,201,6.0,16.0,36,0.00,,,0.00,Wunderground v.1.15,2013-04-07 14:19:00,
2013-04-07 10:20:00,60.0,32.2,29.77,ESE,114,6.0,16.0,35,0.00,,,0.00,Wunderground v.1.15,2013-04-07 14:20:00,
2013-04-07 10:21:00,60.0,32.2,29.77,South,184,6.0,16.0,35,0.00,,,0.00,Wunderground v.1.15,2013-04-07 14:21:00,
2013-04-07 10:24:00,60.0,32.9,29.77,SSE,158,5.0,16.0,36,0.00,,,0.00,Wunderground v.1.15,2013-04-07 14:24:00,
2013-04-07 10:25:00,59.9,32.9,29.77,SW,215,5.0,16.0,36,0.00,,,0.00,Wunderground v.1.15,2013-04-07 14:25:00,
2013-04-07 10:29:00,60.3,33.9,29.77,SSW,202,6.0,16.0,37,0.00,,,0.00,Wunderground v.1.15,2013-04-07 14:29:00,
2013-04-07 10:31:00,60.8,33.7,29.77,SSW,205,5.0,6.0,36,0.00,,,0.00,Wunderground v.1.15,2013-04-07 14:31:00,
2013-04-07 10:32:00,61.0,33.1,29.77,SE,145,5.0,16.0,35,0.00,,,0.00,Wunderground v.1.15,2013-04-07 14:32:00,
2013-04-07 10:33:00,61.1,33.2,29.77,SSE,163,6.0,16.0,35,0.00,,,0.00,Wunderground v.1.15,2013-04-07 14:33:00,
2013-04-07 10:37:00,61.1,33.2,29.76,SSE,165,6.0,16.0,35,0.00,,,0.00,Wunderground v.1.15,2013-04-07 14:37:00,
2013-04-07 10:38:00,61.1,33.2,29.76,SW,233,6.0,16.0,35,0.00,,,0.00,Wunderground v.1.15,2013-04-07 14:38:00,
2013-04-07 10:40:00,61.1,33.2,29.77,SSW,212,6.0,6.0,35,0.00,,,0.00,Wunderground v.1.15,2013-04-07 14:40:00,
2013-04-07 10:41:00,61.1,33.2,29.77,SW,233,6.0,16.0,35,0.00,,,0.00,Wunderground v.1.15,2013-04-07 14:41:00,
2013-04-07 10:44:00,61.1,33.2,29.76,SSE,153,6.0,16.0,35,0.00,,,0.00,Wunderground v.1.15,2013-04-07 14:44:00,
2013-04-07 10:45:00,61.0,33.1,29.77,SSE,158,6.0,16.0,35,0.00,,,0.00,Wunderground v.1.15,2013-04-07 14:45:00,
2013-04-07 10:49:00,60.7,32.9,29.76,SW,224,5.0,16.0,35,0.00,,,0.00,Wunderground v.1.15,2013-04-07 14:49:00,
2013-04-07 10:50:00,60.7,33.6,29.76,SSW,203,5.0,5.0,36,0.00,,,0.00,Wunderground v.1.15,2013-04-07 14:50:00,
2013-04-07 10:51:00,60.6,33.5,29.77,SE,133,5.0,12.0,36,0.00,,,0.00,Wunderground v.1.15,2013-04-07 14:51:00,
2013-04-07 10:55:00,60.5,33.4,29.76,South,174,5.0,16.0,36,0.00,,,0.00,Wunderground v.1.15,2013-04-07 14:55:00,
2013-04-07 10:56:00,60.5,33.4,29.76,South,180,5.0,16.0,36,0.00,,,0.00,Wunderground v.1.15,2013-04-07 14:56:00,
2013-04-07 10:58:00,60.6,34.2,29.76,South,177,6.0,16.0,37,0.00,,,0.00,Wunderground v.1.15,2013-04-07 14:58:00,
2013-04-07 11:00:00,60.7,34.3,29.76,South,170,5.0,5.0,37,0.00,,,0.00,Wunderground v.1.15,2013-04-07 15:00:00,
2013-04-07 11:01:00,60.7,33.6,29.76,South,187,5.0,10.0,36,0.00,,,0.00,Wunderground v.1.15,2013-04-07 15:01:00,
2013-04-07 11:04:00,60.9,34.4,29.76,SW,217,6.0,16.0,37,0.00,,,0.00,Wunderground v.1.15,2013-04-07 15:04:00,
2013-04-07 11:06:00,61.1,33.9,29.76,SSE,168,6.0,16.0,36,0.00,,,0.00,Wunderground v.1.15,2013-04-07 15:06:00,
2013-04-07 11:07:00,61.2,34.7,29.76,SSW,205,6.0,16.0,37,0.00,,,0.00,Wunderground v.1.15,2013-04-07 15:07:00,
2013-04-07 11:08:00,61.2,34.0,29.76,SSW,195,6.0,16.0,36,0.00,,,0.00,Wunderground v.1.15,2013-04-07 15:08:00,
2013-04-07 11:09:00,61.2,34.0,29.76,South,189,6.0,16.0,36,0.00,,,0.00,Wunderground v.1.15,2013-04-07 15:09:00,
2013-04-07 11:13:00,61.3,34.1,29.76,South,179,6.0,16.0,36,0.00,,,0.00,Wunderground v.1.15,2013-04-07 15:13:00,
2013-04-07 11:14:00,61.4,34.2,29.76,SE,132,6.0,16.0,36,0.00,,,0.00,Wunderground v.1.15,2013-04-07 15:14:00,
2013-04-07 11:15:00,61.5,35.0,29.76,SSW,211,6.0,16.0,37,0.00,,,0.00,Wunderground v.1.15,2013-04-07 15:15:00,
2013-04-07 11:18:00,61.7,35.1,29.75,SW,224,5.0,16.0,37,0.00,,,0.00,Wunderground v.1.15,2013-04-07 15:18:00,
2013-04-07 11:19:00,61.8,34.5,29.75,SSW,211,5.0,16.0,36,0.00,,,0.00,Wunderground v.1.15,2013-04-07 15:19:00,
2013-04-07 11:20:00,61.8,34.5,29.75,SSW,211,5.0,5.0,36,0.00,,,0.00,Wunderground v.1.15,2013-04-07 15:20:00,
2013-04-07 11:23:00,62.1,34.8,29.75,SSW,192,4.0,16.0,36,0.00,,,0.00,Wunderground v.1.15,2013-04-07 15:23:00,
2013-04-07 11:24:00,62.2,34.9,29.75,SSE,149,4.0,16.0,36,0.00,,,0.00,Wunderground v.1.15,2013-04-07 15:24:00,
2013-04-07 11:29:00,62.3,35.0,29.75,SSE,149,6.0,16.0,36,0.00,,,0.00,Wunderground v.1.15,2013-04-07 15:29:00,
2013-04-07 11:30:00,62.3,35.0,29.75,South,179,6.0,16.0,36,0.00,,,0.00,Wunderground v.1.15,2013-04-07 15:30:00,
2013-04-07 11:31:00,62.4,35.1,29.75,SE,145,6.0,16.0,36,0.00,,,0.00,Wunderground v.1.15,2013-04-07 15:31:00,
2013-04-07 11:34:00,62.5,35.2,29.75,South,176,6.0,16.0,36,0.00,,,0.00,Wunderground v.1.15,2013-04-07 15:34:00,
2013-04-07 11:35:00,62.5,35.2,29.75,SSE,155,6.0,16.0,36,0.00,,,0.00,Wunderground v.1.15,2013-04-07 15:35:00,
2013-04-07 11:36:00,62.6,35.3,29.75,SE,139,6.0,16.0,36,0.00,,,0.00,Wunderground v.1.15,2013-04-07 15:36:00,
2013-04-07 11:39:00,62.9,35.5,29.75,South,187,6.0,16.0,36,0.00,,,0.00,Wunderground v.1.15,2013-04-07 15:39:00,
2013-04-07 11:41:00,63.0,34.9,29.75,South,173,5.0,16.0,35,0.00,,,0.00,Wunderground v.1.15,2013-04-07 15:41:00,
2013-04-07 11:42:00,63.0,35.6,29.75,South,169,6.0,16.0,36,0.00,,,0.00,Wunderground v.1.15,2013-04-07 15:42:00,
2013-04-07 11:44:00,63.1,35.7,29.75,South,187,6.0,16.0,36,0.00,,,0.00,Wunderground v.1.15,2013-04-07 15:44:00,
2013-04-07 11:45:00,63.1,35.0,29.75,SSW,202,6.0,16.0,35,0.00,,,0.00,Wunderground v.1.15,2013-04-07 15:45:00,
2013-04-07 11:47:00,63.1,35.7,29.75,SSW,200,6.0,16.0,36,0.00,,,0.00,Wunderground v.1.15,2013-04-07 15:47:00,
2013-04-07 11:50:00,63.1,35.7,29.75,SSE,148,5.0,16.0,36,0.00,,,0.00,Wunderground v.1.15,2013-04-07 15:50:00,
2013-04-07 11:51:00,63.1,35.7,29.75,ESE,121,5.0,16.0,36,0.00,,,0.00,Wunderground v.1.15,2013-04-07 15:51:00,
2013-04-07 11:53:00,63.0,35.6,29.75,SSE,151,5.0,16.0,36,0.00,,,0.00,Wunderground v.1.15,2013-04-07 15:53:00,
2013-04-07 11:55:00,63.0,35.6,29.75,ESE,106,6.0,16.0,36,0.00,,,0.00,Wunderground v.1.15,2013-04-07 15:55:00,
2013-04-07 11:57:00,63.0,35.6,29.75,SW,235,6.0,16.0,36,0.00,,,0.00,Wunderground v.1.15,2013-04-07 15:57:00,
2013-04-07 11:59:00,63.1,35.7,29.75,WSW,245,6.0,16.0,36,0.00,,,0.00,Wunderground v.1.15,2013-04-07 15:59:00,
2013-04-07 12:02:00,63.3,35.9,29.75,SSE,156,6.0,16.0,36,0.00,,,0.00,Wunderground v.1.15,2013-04-07 16:02:00,
2013-04-07 12:05:00,63.5,36.0,29.75,SSW,194,5.0,16.0,36,0.00,,,0.00,Wunderground v.1.15,2013-04-07 16:05:00,
2013-04-07 12:06:00,63.6,36.1,29.75,South,173,5.0,16.0,36,0.00,,,0.00,Wunderground v.1.15,2013-04-07 16:06:00,
2013-04-07 12:07:00,63.8,36.3,29.75,West,267,5.0,16.0,36,0.00,,,0.00,Wunderground v.1.15,2013-04-07 16:07:00,
2013-04-07 12:09:00,64.0,36.5,29.75,SE,139,4.0,16.0,36,0.00,,,0.00,Wunderground v.1.15,2013-04-07 16:09:00,
2013-04-07 12:12:00,64.3,36.0,29.74,SE,144,5.0,16.0,35,0.00,,,0.00,Wunderground v.1.15,2013-04-07 16:12:00,
2013-04-07 12:13:00,64.3,36.8,29.75,SSE,152,5.0,16.0,36,0.00,,,0.00,Wunderground v.1.15,2013-04-07 16:13:00,
2013-04-07 12:16:00,64.7,37.1,29.74,SW,219,5.0,16.0,36,0.00,,,0.00,Wunderground v.1.15,2013-04-07 16:16:00,
2013-04-07 12:20:00,65.1,36.8,29.74,South,191,5.0,16.0,35,0.00,,,0.00,Wunderground v.1.15,2013-04-07 16:20:00,
2013-04-07 12:21:00,65.2,36.8,29.74,SSW,200,5.0,16.0,35,0.00,,,0.00,Wunderground v.1.15,2013-04-07 16:21:00,
2013-04-07 12:22:00,65.4,37.0,29.74,SW,233,5.0,16.0,35,0.00,,,0.00,Wunderground v.1.15,2013-04-07 16:22:00,
2013-04-07 12:23:00,65.4,37.0,29.74,SE,134,5.0,16.0,35,0.00,,,0.00,Wunderground v.1.15,2013-04-07 16:23:00,
2013-04-07 12:27:00,65.9,37.5,29.74,South,190,6.0,16.0,35,0.00,,,0.00,Wunderground v.1.15,2013-04-07 16:27:00,
2013-04-07 12:28:00,66.0,37.5,29.74,South,191,6.0,16.0,35,0.00,,,0.00,Wunderground v.1.15,2013-04-07 16:28:00,
2013-04-07 12:29:00,66.2,37.0,29.74,WSW,240,6.0,16.0,34,0.00,,,0.00,Wunderground v.1.15,2013-04-07 16:29:00,
2013-04-07 12:30:00,66.3,37.8,29.74,SSE,149,6.0,6.0,35,0.00,,,0.00,Wunderground v.1.15,2013-04-07 16:30:00,
2013-04-07 12:34:00,66.7,38.2,29.73,South,181,6.0,16.0,35,0.00,,,0.00,Wunderground v.1.15,2013-04-07 16:34:00,
2013-04-07 12:35:00,66.8,38.3,29.73,South,185,6.0,16.0,35,0.00,,,0.00,Wunderground v.1.15,2013-04-07 16:35:00,
2013-04-07 12:36:00,66.9,38.3,29.73,SSW,204,5.0,16.0,35,0.00,,,0.00,Wunderground v.1.15,2013-04-07 16:36:00,
2013-04-07 12:40:00,67.2,37.9,29.73,SSW,208,5.0,16.0,34,0.00,,,0.00,Wunderground v.1.15,2013-04-07 16:40:00,
2013-04-07 12:45:00,67.8,40.6,29.73,SSW,207,5.0,16.0,37,0.00,,,0.00,Wunderground v.1.15,2013-04-07 16:45:00,
2013-04-07 12:46:00,67.8,39.9,29.73,SW,226,5.0,16.0,36,0.00,,,0.00,Wunderground v.1.15,2013-04-07 16:46:00,
2013-04-07 12:47:00,67.7,40.5,29.72,South,177,5.0,16.0,37,0.00,,,0.00,Wunderground v.1.15,2013-04-07 16:47:00,
2013-04-07 12:50:00,67.7,40.5,29.73,West,276,6.0,16.0,37,0.00,,,0.00,Wunderground v.1.15,2013-04-07 16:50:00,
2013-04-07 12:51:00,67.7,40.5,29.73,SSW,207,7.0,16.0,37,0.00,,,0.00,Wunderground v.1.15,2013-04-07 16:51:00,
2013-04-07 12:53:00,67.8,40.6,29.72,SW,236,8.0,16.0,37,0.00,,,0.00,Wunderground v.1.15,2013-04-07 16:53:00,
2013-04-07 12:55:00,67.9,41.3,29.73,SSW,198,8.0,16.0,38,0.00,,,0.00,Wunderground v.1.15,2013-04-07 16:55:00,
2013-04-07 12:59:00,68.1,41.5,29.72,WSW,239,8.0,16.0,38,0.00,,,0.00,Wunderground v.1.15,2013-04-07 16:59:00,
2013-04-07 13:00:00,68.1,40.8,29.72,South,190,8.0,8.0,37,0.00,,,0.00,Wunderground v.1.15,2013-04-07 17:00:00,
2013-04-07 13:05:00,68.7,42.1,29.73,SW,222,7.0,16.0,38,0.00,,,0.00,Wunderground v.1.15,2013-04-07 17:05:00,
2013-04-07 13:07:00,68.9,41.5,29.72,West,280,6.0,16.0,37,0.00,,,0.00,Wunderground v.1.15,2013-04-07 17:07:00,
2013-04-07 13:08:00,68.9,41.5,29.72,WSW,256,6.0,16.0,37,0.00,,,0.00,Wunderground v.1.15,2013-04-07 17:08:00,
2013-04-07 13:10:00,68.9,42.2,29.72,SSE,150,6.0,6.0,38,0.00,,,0.00,Wunderground v.1.15,2013-04-07 17:10:00,
2013-04-07 13:13:00,68.9,41.5,29.72,SW,231,6.0,16.0,37,0.00,,,0.00,Wunderground v.1.15,2013-04-07 17:13:00,
2013-04-07 13:15:00,68.8,41.5,29.72,WSW,246,7.0,16.0,37,0.00,,,0.00,Wunderground v.1.15,2013-04-07 17:15:00,
2013-04-07 13:19:00,68.7,41.4,29.72,WSW,256,8.0,16.0,37,0.00,,,0.00,Wunderground v.1.15,2013-04-07 17:19:00,
2013-04-07 13:22:00,69.0,42.3,29.72,SSW,211,8.0,16.0,38,0.00,,,0.00,Wunderground v.1.15,2013-04-07 17:22:00,
2013-04-07 13:23:00,69.1,41.7,29.72,West,259,8.0,16.0,37,0.00,,,0.00,Wunderground v.1.15,2013-04-07 17:23:00,
2013-04-07 13:24:00,69.2,41.8,29.71,SSW,194,8.0,16.0,37,0.00,,,0.00,Wunderground v.1.15,2013-04-07 17:24:00,
2013-04-07 13:26:00,69.6,42.2,29.71,SSW,203,7.0,16.0,37,0.00,,,0.00,Wunderground v.1.15,2013-04-07 17:26:00,
2013-04-07 13:31:00,69.9,41.7,29.72,WSW,250,7.0,16.0,36,0.00,,,0.00,Wunderground v.1.15,2013-04-07 17:31:00,
2013-04-07 13:32:00,69.9,42.4,29.71,SW,231,8.0,16.0,37,0.00,,,0.00,Wunderground v.1.15,2013-04-07 17:32:00,
2013-04-07 13:34:00,70.1,41.9,29.72,WSW,238,8.0,16.0,36,0.00,,,0.00,Wunderground v.1.15,2013-04-07 17:34:00,
2013-04-07 13:36:00,70.1,41.9,29.72,SSW,208,9.0,16.0,36,0.00,,,0.00,Wunderground v.1.15,2013-04-07 17:36:00,
2013-04-07 13:40:00,70.2,41.3,29.71,SE,134,8.0,16.0,35,0.00,,,0.00,Wunderground v.1.15,2013-04-07 17:40:00,
2013-04-07 13:42:00,70.6,42.3,29.71,SW,225,7.0,16.0,36,0.00,,,0.00,Wunderground v.1.15,2013-04-07 17:42:00,
2013-04-07 13:43:00,70.8,43.2,29.71,South,175,7.0,16.0,37,0.00,,,0.00,Wunderground v.1.15,2013-04-07 17:43:00,
2013-04-07 13:45:00,71.1,42.0,29.71,West,267,6.0,16.0,35,0.00,,,0.00,Wunderground v.1.15,2013-04-07 17:45:00,
2013-04-07 13:48:00,71.0,42.0,29.71,SW,236,6.0,16.0,35,0.00,,,0.00,Wunderground v.1.15,2013-04-07 17:48:00,
2013-04-07 13:50:00,71.0,42.7,29.71,West,259,6.0,16.0,36,0.00,,,0.00,Wunderground v.1.15,2013-04-07 17:50:00,
2013-04-07 13:52:00,71.1,41.3,29.71,WSW,250,7.0,16.0,34,0.00,,,0.00,Wunderground v.1.15,2013-04-07 17:52:00,
2013-04-07 13:55:00,71.1,41.3,29.71,WSW,243,8.0,17.0,34,0.00,,,0.00,Wunderground v.1.15,2013-04-07 17:55:00,
2013-04-07 13:56:00,71.0,42.0,29.71,West,266,8.0,17.0,35,0.00,,,0.00,Wunderground v.1.15,2013-04-07 17:56:00,
2013-04-07 13:59:00,71.0,42.0,29.71,South,191,8.0,17.0,35,0.00,,,0.00,Wunderground v.1.15,2013-04-07 17:59:00,
2013-04-07 14:01:00,71.1,42.0,29.71,SW,236,8.0,16.0,35,0.00,,,0.00,Wunderground v.1.15,2013-04-07 18:01:00,
2013-04-07 14:02:00,71.2,42.1,29.70,WSW,254,8.0,16.0,35,0.00,,,0.00,Wunderground v.1.15,2013-04-07 18:02:00,
2013-04-07 14:05:00,71.4,41.6,29.71,SW,223,7.0,19.0,34,0.00,,,0.00,Wunderground v.1.15,2013-04-07 18:05:00,
2013-04-07 14:07:00,71.2,41.4,29.71,West,269,7.0,19.0,34,0.00,,,0.00,Wunderground v.1.15,2013-04-07 18:07:00,
2013-04-07 14:09:00,71.1,42.0,29.71,WNW,290,8.0,19.0,35,0.00,,,0.00,Wunderground v.1.15,2013-04-07 18:09:00,
2013-04-07 14:10:00,71.0,42.0,29.71,WSW,250,8.0,16.0,35,0.00,,,0.00,Wunderground v.1.15,2013-04-07 18:10:00,
2013-04-07 14:11:00,71.0,42.7,29.71,SSW,194,8.0,16.0,36,0.00,,,0.00,Wunderground v.1.15,2013-04-07 18:11:00,
2013-04-07 14:12:00,70.9,42.6,29.72,WSW,239,8.0,16.0,36,0.00,,,0.00,Wunderground v.1.15,2013-04-07 18:12:00,
2013-04-07 14:15:00,70.5,43.7,29.72,West,262,9.0,17.0,38,0.00,,,0.00,Wunderground v.1.15,2013-04-07 18:15:00,
2013-04-07 14:17:00,70.2,44.1,29.73,West,274,9.0,17.0,39,0.00,,,0.00,Wunderground v.1.15,2013-04-07 18:17:00,
2013-04-07 14:19:00,69.9,44.5,29.72,West,262,9.0,17.0,40,0.00,,,0.00,Wunderground v.1.15,2013-04-07 18:19:00,
2013-04-07 14:21:00,69.7,44.3,29.73,West,279,9.0,16.0,40,0.00,,,0.00,Wunderground v.1.15,2013-04-07 18:21:00,
2013-04-07 14:23:00,69.6,45.5,29.73,West,264,10.0,16.0,42,0.00,,,0.00,Wunderground v.1.15,2013-04-07 18:23:00,
2013-04-07 14:26:00,69.2,44.5,29.73,WSW,250,9.0,16.0,41,0.00,,,0.00,Wunderground v.1.15,2013-04-07 18:26:00,
2013-04-07 14:28:00,68.8,44.8,29.73,West,276,10.0,16.0,42,0.00,,,0.00,Wunderground v.1.15,2013-04-07 18:28:00,
2013-04-07 14:29:00,68.6,44.6,29.73,SW,235,10.0,16.0,42,0.00,,,0.00,Wunderground v.1.15,2013-04-07 18:29:00,
2013-04-07 14:33:00,68.3,44.9,29.73,WSW,244,10.0,16.0,43,0.00,,,0.00,Wunderground v.1.15,2013-04-07 18:33:00,
2013-04-07 14:36:00,68.3,45.5,29.73,SW,232,10.0,16.0,44,0.00,,,0.00,Wunderground v.1.15,2013-04-07 18:36:00,
2013-04-07 14:38:00,68.5,45.1,29.74,WSW,252,10.0,16.0,43,0.00,,,0.00,Wunderground v.1.15,2013-04-07 18:38:00,
2013-04-07 14:39:00,68.4,45.0,29.74,SW,235,10.0,16.0,43,0.00,,,0.00,Wunderground v.1.15,2013-04-07 18:39:00,
2013-04-07 14:40:00,68.4,45.0,29.73,WSW,240,10.0,16.0,43,0.00,,,0.00,Wunderground v.1.15,2013-04-07 18:40:00,
2013-04-07 14:44:00,68.1,45.4,29.74,West,264,10.0,16.0,44,0.00,,,0.00,Wunderground v.1.15,2013-04-07 18:44:00,
2013-04-07 14:45:00,68.0,45.3,29.74,WSW,250,10.0,16.0,44,0.00,,,0.00,Wunderground v.1.15,2013-04-07 18:45:00,
2013-04-07 14:46:00,67.9,45.2,29.74,West,262,10.0,16.0,44,0.00,,,0.00,Wunderground v.1.15,2013-04-07 18:46:00,
2013-04-07 14:49:00,67.6,45.5,29.74,West,269,11.0,17.0,45,0.00,,,0.00,Wunderground v.1.15,2013-04-07 18:49:00,
2013-04-07 14:50:00,67.6,45.5,29.74,NNW,327,11.0,11.0,45,0.00,,,0.00,Wunderground v.1.15,2013-04-07 18:50:00,
2013-04-07 14:51:00,67.6,45.5,29.74,NW,307,11.0,16.0,45,0.00,,,0.00,Wunderground v.1.15,2013-04-07 18:51:00,
2013-04-07 14:53:00,67.7,45.6,29.74,West,263,11.0,16.0,45,0.00,,,0.00,Wunderground v.1.15,2013-04-07 18:53:00,
2013-04-07 14:57:00,67.7,45.6,29.74,WNW,293,10.0,16.0,45,0.00,,,0.00,Wunderground v.1.15,2013-04-07 18:57:00,
2013-04-07 15:01:00,67.5,46.0,29.75,West,276,9.0,16.0,46,0.00,,,0.00,Wunderground v.1.15,2013-04-07 19:01:00,
2013-04-07 15:02:00,67.6,46.1,29.75,WSW,248,9.0,16.0,46,0.00,,,0.00,Wunderground v.1.15,2013-04-07 19:02:00,
2013-04-07 15:04:00,67.6,45.5,29.75,WNW,294,9.0,16.0,45,0.00,,,0.00,Wunderground v.1.15,2013-04-07 19:04:00,
2013-04-07 15:05:00,67.7,46.2,29.75,West,276,9.0,16.0,46,0.00,,,0.00,Wunderground v.1.15,2013-04-07 19:05:00,
2013-04-07 15:08:00,67.7,45.6,29.75,SW,220,8.0,16.0,45,0.00,,,0.00,Wunderground v.1.15,2013-04-07 19:08:00,
2013-04-07 15:10:00,67.4,45.3,29.75,WSW,254,9.0,9.0,45,0.00,,,0.00,Wunderground v.1.15,2013-04-07 19:10:00,
2013-04-07 15:14:00,67.2,45.7,29.75,SW,226,9.0,16.0,46,0.00,,,0.00,Wunderground v.1.15,2013-04-07 19:14:00,
2013-04-07 15:15:00,67.2,45.7,29.75,West,278,9.0,16.0,46,0.00,,,0.00,Wunderground v.1.15,2013-04-07 19:15:00,
2013-04-07 15:19:00,66.9,45.4,29.75,WSW,248,10.0,19.0,46,0.00,,,0.00,Wunderground v.1.15,2013-04-07 19:19:00,
2013-04-07 15:20:00,66.8,45.3,29.75,West,269,10.0,10.0,46,0.00,,,0.00,Wunderground v.1.15,2013-04-07 19:20:00,
2013-04-07 15:22:00,66.6,45.7,29.75,WSW,237,10.0,16.0,47,0.00,,,0.00,Wunderground v.1.15,2013-04-07 19:22:00,
2013-04-07 15:25:00,66.7,46.4,29.75,WSW,256,10.0,16.0,48,0.00,,,0.00,Wunderground v.1.15,2013-04-07 19:25:00,
2013-04-07 15:27:00,66.8,45.9,29.76,West,259,10.0,16.0,47,0.00,,,0.00,Wunderground v.1.15,2013-04-07 19:27:00,
2013-04-07 15:29:00,66.8,45.9,29.76,South,188,9.0,16.0,47,0.00,,,0.00,Wunderground v.1.15,2013-04-07 19:29:00,
2013-04-07 15:32:00,67.0,46.7,29.76,West,264,8.0,16.0,48,0.00,,,0.00,Wunderground v.1.15,2013-04-07 19:32:00,
2013-04-07 15:33:00,67.0,46.1,29.76,SW,215,8.0,16.0,47,0.00,,,0.00,Wunderground v.1.15,2013-04-07 19:33:00,
2013-04-07 15:35:00,66.9,45.4,29.76,SW,216,8.0,16.0,46,0.00,,,0.00,Wunderground v.1.15,2013-04-07 19:35:00,
2013-04-07 15:39:00,66.9,46.0,29.76,SW,235,7.0,16.0,47,0.00,,,0.00,Wunderground v.1.15,2013-04-07 19:39:00,
2013-04-07 15:40:00,67.0,46.7,29.76,WSW,248,7.0,16.0,48,0.00,,,0.00,Wunderground v.1.15,2013-04-07 19:40:00,
2013-04-07 15:46:00,67.2,45.7,29.76,West,267,7.0,24.0,46,0.00,,,0.00,Wunderground v.1.15,2013-04-07 19:46:00,
2013-04-07 15:49:00,66.7,45.8,29.77,SW,235,9.0,24.0,47,0.00,,,0.00,Wunderground v.1.15,2013-04-07 19:49:00,
2013-04-07 15:52:00,66.6,45.7,29.76,WSW,257,11.0,18.0,47,0.00,,,0.00,Wunderground v.1.15,2013-04-07 19:52:00,
2013-04-07 15:53:00,66.6,45.7,29.76,SW,218,11.0,18.0,47,0.00,,,0.00,Wunderground v.1.15,2013-04-07 19:53:00,
2013-04-07 15:58:00,66.4,45.0,29.77,SW,215,10.0,18.0,46,0.00,,,0.00,Wunderground v.1.15,2013-04-07 19:58:00,
2013-04-07 15:59:00,66.5,45.6,29.77,SSW,201,10.0,18.0,47,0.00,,,0.00,Wunderground v.1.15,2013-04-07 19:59:00,
2013-04-07 16:04:00,66.6,45.7,29.77,WSW,247,9.0,16.0,47,0.00,,,0.00,Wunderground v.1.15,2013-04-07 20:04:00,
2013-04-07 16:07:00,66.9,46.0,29.77,WSW,243,8.0,16.0,47,0.00,,,0.00,Wunderground v.1.15,2013-04-07 20:07:00,
2013-04-07 16:08:00,67.0,46.1,29.77,West,266,8.0,16.0,47,0.00,,,0.00,Wunderground v.1.15,2013-04-07 20:08:00,
2013-04-07 16:10:00,67.2,45.7,29.77,West,264,8.0,8.0,46,0.00,,,0.00,Wunderground v.1.15,2013-04-07 20:10:00,
2013-04-07 16:11:00,67.3,45.8,29.77,WSW,243,8.0,16.0,46,0.00,,,0.00,Wunderground v.1.15,2013-04-07 20:11:00,
2013-04-07 16:13:00,67.3,45.8,29.77,SW,219,8.0,16.0,46,0.00,,,0.00,Wunderground v.1.15,2013-04-07 20:13:00,
2013-04-07 16:14:00,67.2,45.1,29.77,WSW,252,8.0,16.0,45,0.00,,,0.00,Wunderground v.1.15,2013-04-07 20:14:00,
2013-04-07 16:16:00,66.7,44.7,29.78,WSW,249,10.0,21.0,45,0.00,,,0.00,Wunderground v.1.15,2013-04-07 20:16:00,
2013-04-07 16:17:00,66.5,44.5,29.78,WSW,242,10.0,21.0,45,0.00,,,0.00,Wunderground v.1.15,2013-04-07 20:17:00,
2013-04-07 16:20:00,66.5,45.1,29.77,WNW,290,11.0,11.0,46,0.00,,,0.00,Wunderground v.1.15,2013-04-07 20:20:00,
2013-04-07 16:22:00,66.7,45.3,29.78,NW,315,11.0,16.0,46,0.00,,,0.00,Wunderground v.1.15,2013-04-07 20:22:00,
2013-04-07 16:25:00,66.6,44.6,29.77,SW,233,11.0,16.0,45,0.00,,,0.00,Wunderground v.1.15,2013-04-07 20:25:00,
2013-04-07 16:28:00,66.6,45.2,29.77,WSW,253,10.0,16.0,46,0.00,,,0.00,Wunderground v.1.15,2013-04-07 20:28:00,
2013-04-07 16:30:00,66.7,44.7,29.78,WSW,245,10.0,16.0,45,0.00,,,0.00,Wunderground v.1.15,2013-04-07 20:30:00,
2013-04-07 16:33:00,66.8,44.8,29.77,SW,226,11.0,16.0,45,0.00,,,0.00,Wunderground v.1.15,2013-04-07 20:33:00,
2013-04-07 16:35:00,66.8,44.8,29.78,WSW,237,10.0,16.0,45,0.00,,,0.00,Wunderground v.1.15,2013-04-07 20:35:00,
2013-04-07 16:36:00,66.9,44.9,29.78,SW,233,10.0,16.0,45,0.00,,,0.00,Wunderground v.1.15,2013-04-07 20:36:00,
2013-04-07 16:37:00,66.9,44.3,29.78,WSW,239,10.0,16.0,44,0.00,,,0.00,Wunderground v.1.15,2013-04-07 20:37:00,
2013-04-07 16:40:00,66.8,44.8,29.78,WSW,257,10.0,10.0,45,0.00,,,0.00,Wunderground v.1.15,2013-04-07 20:40:00,
2013-04-07 16:41:00,66.8,44.8,29.78,WNW,285,10.0,16.0,45,0.00,,,0.00,Wunderground v.1.15,2013-04-07 20:41:00,
2013-04-07 16:42:00,66.9,44.3,29.78,SW,233,10.0,16.0,44,0.00,,,0.00,Wunderground v.1.15,2013-04-07 20:42:00,
2013-04-07 16:45:00,67.1,45.0,29.78,SW,235,9.0,16.0,45,0.00,,,0.00,Wunderground v.1.15,2013-04-07 20:45:00,
2013-04-07 16:48:00,67.2,45.1,29.78,WSW,253,9.0,16.0,45,0.00,,,0.00,Wunderground v.1.15,2013-04-07 20:48:00,
2013-04-07 16:49:00,67.1,45.0,29.79,West,277,9.0,16.0,45,0.00,,,0.00,Wunderground v.1.15,2013-04-07 20:49:00,
2013-04-07 16:50:00,67.1,45.0,29.79,NNE,30,8.0,8.0,45,0.00,,,0.00,Wunderground v.1.15,2013-04-07 20:50:00,
2013-04-07 16:54:00,64.5,44.9,29.80,WNW,301,6.0,16.0,49,0.00,,,0.00,Wunderground v.1.15,2013-04-07 20:54:00,
2013-04-07 16:55:00,64.2,44.6,29.80,WNW,291,6.0,16.0,49,0.00,,,0.00,Wunderground v.1.15,2013-04-07 20:55:00,
2013-04-07 16:57:00,63.4,44.4,29.80,WSW,255,5.0,16.0,50,0.00,,,0.00,Wunderground v.1.15,2013-04-07 20:57:00,
2013-04-07 16:59:00,62.6,44.7,29.80,West,275,4.0,16.0,52,0.00,,,0.00,Wunderground v.1.15,2013-04-07 20:59:00,
2013-04-07 17:02:00,61.8,44.0,29.81,WSW,252,4.0,16.0,52,0.00,,,0.00,Wunderground v.1.15,2013-04-07 21:02:00,
2013-04-07 17:03:00,61.5,43.7,29.81,WNW,288,5.0,16.0,52,0.00,,,0.00,Wunderground v.1.15,2013-04-07 21:03:00,
2013-04-07 17:05:00,60.8,43.6,29.81,WNW,282,6.0,16.0,53,0.00,,,0.00,Wunderground v.1.15,2013-04-07 21:05:00,
2013-04-07 17:07:00,60.6,43.9,29.81,WSW,252,6.0,16.0,54,0.00,,,0.00,Wunderground v.1.15,2013-04-07 21:07:00,
2013-04-07 17:12:00,60.4,43.7,29.82,WNW,288,5.0,16.0,54,0.00,,,0.00,Wunderground v.1.15,2013-04-07 21:12:00,
2013-04-07 17:13:00,60.3,43.6,29.82,WSW,243,5.0,16.0,54,0.00,,,0.00,Wunderground v.1.15,2013-04-07 21:13:00,
2013-04-07 17:15:00,60.1,42.9,29.82,West,277,5.0,16.0,53,0.00,,,0.00,Wunderground v.1.15,2013-04-07 21:15:00,
2013-04-07 17:19:00,59.8,43.6,29.82,WNW,291,5.0,16.0,55,0.00,,,0.00,Wunderground v.1.15,2013-04-07 21:19:00,
2013-04-07 17:20:00,59.9,43.7,29.82,NW,318,5.0,5.0,55,0.00,,,0.00,Wunderground v.1.15,2013-04-07 21:20:00,
2013-04-07 17:22:00,60.1,43.4,29.82,West,279,5.0,16.0,54,0.00,,,0.00,Wunderground v.1.15,2013-04-07 21:22:00,
2013-04-07 17:23:00,60.3,43.6,29.82,West,277,4.0,16.0,54,0.00,,,0.00,Wunderground v.1.15,2013-04-07 21:23:00,
2013-04-07 17:25:00,60.2,43.0,29.83,NNW,328,4.0,16.0,53,0.00,,,0.00,Wunderground v.1.15,2013-04-07 21:25:00,
2013-04-07 17:28:00,59.8,42.6,29.83,West,276,4.0,16.0,53,0.00,,,0.00,Wunderground v.1.15,2013-04-07 21:28:00,
2013-04-07 17:29:00,59.6,42.4,29.83,WNW,298,5.0,16.0,53,0.00,,,0.00,Wunderground v.1.15,2013-04-07 21:29:00,
2013-04-07 17:30:00,59.5,42.3,29.83,West,264,5.0,5.0,53,0.00,,,0.00,Wunderground v.1.15,2013-04-07 21:30:00,
2013-04-07 17:36:00,59.3,42.6,29.83,WNW,302,5.0,16.0,54,0.00,,,0.00,Wunderground v.1.15,2013-04-07 21:36:00,
2013-04-07 17:37:00,59.3,42.2,29.83,NNW,327,5.0,16.0,53,0.00,,,0.00,Wunderground v.1.15,2013-04-07 21:37:00,
2013-04-07 17:38:00,59.3,42.2,29.83,West,280,5.0,16.0,53,0.00,,,0.00,Wunderground v.1.15,2013-04-07 21:38:00,
2013-04-07 17:43:00,58.9,41.8,29.84,WNW,300,4.0,16.0,53,0.00,,,0.00,Wunderground v.1.15,2013-04-07 21:43:00,
2013-04-07 17:46:00,59.0,41.9,29.84,West,273,4.0,16.0,53,0.00,,,0.00,Wunderground v.1.15,2013-04-07 21:46:00,
2013-04-07 17:47:00,59.0,41.9,29.84,NNW,338,4.0,16.0,53,0.00,,,0.00,Wunderground v.1.15,2013-04-07 21:47:00,
2013-04-07 17:49:00,58.7,41.6,29.84,NW,317,4.0,16.0,53,0.00,,,0.00,Wunderground v.1.15,2013-04-07 21:49:00,
2013-04-07 17:50:00,58.6,41.5,29.85,West,280,4.0,16.0,53,0.00,,,0.00,Wunderground v.1.15,2013-04-07 21:50:00,
2013-04-07 17:55:00,58.3,41.7,29.85,West,276,5.0,16.0,54,0.00,,,0.00,Wunderground v.1.15,2013-04-07 21:55:00,
2013-04-07 17:56:00,58.2,41.6,29.85,WSW,255,5.0,16.0,54,0.00,,,0.00,Wunderground v.1.15,2013-04-07 21:56:00,
2013-04-07 17:57:00,58.1,41.5,29.85,West,277,5.0,16.0,54,0.00,,,0.00,Wunderground v.1.15,2013-04-07 21:57:00,
2013-04-07 18:00:00,57.9,41.3,29.85,West,266,6.0,6.0,54,0.00,,,0.00,Wunderground v.1.15,2013-04-07 22:00:00,
2013-04-07 18:02:00,57.6,41.1,29.85,NNW,327,6.0,16.0,54,0.00,,,0.00,Wunderground v.1.15,2013-04-07 22:02:00,
2013-04-07 18:04:00,57.5,41.0,29.85,WNW,301,6.0,16.0,54,0.00,,,0.00,Wunderground v.1.15,2013-04-07 22:04:00,
2013-04-07 18:06:00,57.4,40.9,29.85,West,264,6.0,16.0,54,0.00,,,0.00,Wunderground v.1.15,2013-04-07 22:06:00,
2013-04-07 18:08:00,57.3,40.8,29.86,West,281,6.0,16.0,54,0.00,,,0.00,Wunderground v.1.15,2013-04-07 22:08:00,
2013-04-07 18:10:00,57.4,40.9,29.86,NNW,327,5.0,16.0,54,0.00,,,0.00,Wunderground v.1.15,2013-04-07 22:10:00,
2013-04-07 18:12:00,57.2,40.7,29.86,West,277,5.0,16.0,54,0.00,,,0.00,Wunderground v.1.15,2013-04-07 22:12:00,
2013-04-07 18:14:00,57.1,40.6,29.87,WNW,293,5.0,16.0,54,0.00,,,0.00,Wunderground v.1.15,2013-04-07 22:14:00,
2013-04-07 18:18:00,56.8,40.8,29.87,WNW,290,5.0,16.0,55,0.00,,,0.00,Wunderground v.1.15,2013-04-07 22:18:00,
2013-04-07 18:20:00,56.8,40.8,29.87,West,259,5.0,16.0,55,0.00,,,0.00,Wunderground v.1.15,2013-04-07 22:20:00,
2013-04-07 18:21:00,56.8,40.8,29.87,WSW,255,5.0,16.0,55,0.00,,,0.00,Wunderground v.1.15,2013-04-07 22:21:00,
2013-04-07 18:23:00,56.6,40.6,29.87,WNW,302,5.0,16.0,55,0.00,,,0.00,Wunderground v.1.15,2013-04-07 22:23:00,
2013-04-07 18:25:00,56.5,40.5,29.87,WSW,253,5.0,16.0,55,0.00,,,0.00,Wunderground v.1.15,2013-04-07 22:25:00,
2013-04-07 18:29:00,56.3,40.3,29.87,West,274,5.0,16.0,55,0.00,,,0.00,Wunderground v.1.15,2013-04-07 22:29:00,
2013-04-07 18:31:00,56.1,40.1,29.88,West,279,6.0,16.0,55,0.00,,,0.00,Wunderground v.1.15,2013-04-07 22:31:00,
2013-04-07 18:32:00,56.1,40.1,29.88,WSW,256,6.0,16.0,55,0.00,,,0.00,Wunderground v.1.15,2013-04-07 22:32:00,
2013-04-07 18:34:00,56.0,40.1,29.88,West,263,5.0,16.0,55,0.00,,,0.00,Wunderground v.1.15,2013-04-07 22:34:00,
2013-04-07 18:36:00,55.9,40.0,29.88,WNW,293,5.0,16.0,55,0.00,,,0.00,Wunderground v.1.15,2013-04-07 22:36:00,
2013-04-07 18:40:00,55.7,39.8,29.89,West,276,4.0,16.0,55,0.00,,,0.00,Wunderground v.1.15,2013-04-07 22:40:00,
2013-04-07 18:42:00,55.5,39.6,29.89,NW,316,5.0,16.0,55,0.00,,,0.00,Wunderground v.1.15,2013-04-07 22:42:00,
2013-04-07 18:44:00,55.3,39.4,29.89,WSW,255,5.0,16.0,55,0.00,,,0.00,Wunderground v.1.15,2013-04-07 22:44:00,
2013-04-07 18:47:00,55.0,39.6,29.89,WSW,252,5.0,16.0,56,0.00,,,0.00,Wunderground v.1.15,2013-04-07 22:47:00,
2013-04-07 18:48:00,54.9,39.5,29.89,WSW,248,6.0,16.0,56,0.00,,,0.00,Wunderground v.1.15,2013-04-07 22:48:00,
2013-04-07 18:50:00,54.8,39.4,29.89,WNW,287,6.0,6.0,56,0.00,,,0.00,Wunderground v.1.15,2013-04-07 22:50:00,
2013-04-07 18:51:00,54.7,39.3,29.89,West,267,6.0,16.0,56,0.00,,,0.00,Wunderground v.1.15,2013-04-07 22:51:00,
2013-04-07 18:54:00,54.6,39.2,29.90,WNW,283,6.0,16.0,56,0.00,,,0.00,Wunderground v.1.15,2013-04-07 22:54:00,
2013-04-07 18:59:00,54.1,39.2,29.90,WNW,302,5.0,16.0,57,0.00,,,0.00,Wunderground v.1.15,2013-04-07 22:59:00,
2013-04-07 19:00:00,54.0,39.1,29.90,West,261,5.0,16.0,57,0.00,,,0.00,Wunderground v.1.15,2013-04-07 23:00:00,
2013-04-07 19:01:00,53.9,39.0,29.90,West,266,6.0,16.0,57,0.00,,,0.00,Wunderground v.1.15,2013-04-07 23:01:00,
2013-04-07 19:06:00,53.5,38.6,29.91,WNW,297,6.0,16.0,57,0.00,,,0.00,Wunderground v.1.15,2013-04-07 23:06:00,
2013-04-07 19:08:00,53.4,38.5,29.91,WSW,242,6.0,16.0,57,0.00,,,0.00,Wunderground v.1.15,2013-04-07 23:08:00,
2013-04-07 19:12:00,53.0,38.6,29.91,WNW,299,6.0,16.0,58,0.00,,,0.00,Wunderground v.1.15,2013-04-07 23:12:00,
2013-04-07 19:13:00,53.0,38.6,29.91,WNW,292,6.0,16.0,58,0.00,,,0.00,Wunderground v.1.15,2013-04-07 23:13:00,
2013-04-07 19:18:00,52.6,38.2,29.92,West,269,5.0,16.0,58,0.00,,,0.00,Wunderground v.1.15,2013-04-07 23:18:00,
2013-04-07 19:19:00,52.5,38.6,29.92,West,276,5.0,16.0,59,0.00,,,0.00,Wunderground v.1.15,2013-04-07 23:19:00,
2013-04-07 19:20:00,52.5,38.6,29.92,WNW,293,4.0,4.0,59,0.00,,,0.00,Wunderground v.1.15,2013-04-07 23:20:00,
2013-04-07 19:23:00,52.2,38.3,29.92,WNW,289,4.0,16.0,59,0.00,,,0.00,Wunderground v.1.15,2013-04-07 23:23:00,
2013-04-07 19:24:00,52.1,38.2,29.92,WNW,289,4.0,16.0,59,0.00,,,0.00,Wunderground v.1.15,2013-04-07 23:24:00,
2013-04-07 19:25:00,52.0,38.1,29.92,WNW,288,4.0,16.0,59,0.00,,,0.00,Wunderground v.1.15,2013-04-07 23:25:00,
2013-04-07 19:29:00,51.7,37.8,29.92,WNW,288,5.0,16.0,59,0.00,,,0.00,Wunderground v.1.15,2013-04-07 23:29:00,
2013-04-07 19:30:00,51.6,37.7,29.92,WSW,247,5.0,5.0,59,0.00,,,0.00,Wunderground v.1.15,2013-04-07 23:30:00,
2013-04-07 19:31:00,51.6,37.7,29.92,WSW,249,5.0,16.0,59,0.00,,,0.00,Wunderground v.1.15,2013-04-07 23:31:00,
2013-04-07 19:34:00,51.4,37.5,29.92,WNW,293,5.0,16.0,59,0.00,,,0.00,Wunderground v.1.15,2013-04-07 23:34:00,
2013-04-07 19:36:00,51.3,37.4,29.93,WSW,252,5.0,16.0,59,0.00,,,0.00,Wunderground v.1.15,2013-04-07 23:36:00,
2013-04-07 19:39:00,51.1,37.7,29.93,WNW,287,5.0,16.0,60,0.00,,,0.00,Wunderground v.1.15,2013-04-07 23:39:00,
2013-04-07 19:40:00,51.0,37.6,29.93,SW,231,4.0,16.0,60,0.00,,,0.00,Wunderground v.1.15,2013-04-07 23:40:00,
2013-04-07 19:42:00,50.9,37.5,29.93,West,267,5.0,16.0,60,0.00,,,0.00,Wunderground v.1.15,2013-04-07 23:42:00,
2013-04-07 19:45:00,50.8,37.4,29.93,West,265,4.0,16.0,60,0.00,,,0.00,Wunderground v.1.15,2013-04-07 23:45:00,
2013-04-07 19:48:00,50.7,37.7,29.93,West,280,4.0,16.0,61,0.00,,,0.00,Wunderground v.1.15,2013-04-07 23:48:00,
2013-04-07 19:52:00,50.6,37.6,29.94,NW,304,3.0,16.0,61,0.00,,,0.00,Wunderground v.1.15,2013-04-07 23:52:00,
2013-04-07 19:54:00,50.5,37.5,29.94,NNW,344,3.0,16.0,61,0.00,,,0.00,Wunderground v.1.15,2013-04-07 23:54:00,
2013-04-07 19:57:00,50.4,37.4,29.94,WNW,297,3.0,16.0,61,0.00,,,0.00,Wunderground v.1.15,2013-04-07 23:57:00,
2013-04-07 20:00:00,50.3,37.4,29.94,West,281,4.0,16.0,61,0.00,,,0.00,Wunderground v.1.15,2013-04-08 00:00:00,
2013-04-07 20:01:00,50.2,37.3,29.94,West,275,4.0,16.0,61,0.00,,,0.00,Wunderground v.1.15,2013-04-08 00:01:00,
2013-04-07 20:02:00,50.2,37.3,29.94,West,262,4.0,16.0,61,0.00,,,0.00,Wunderground v.1.15,2013-04-08 00:02:00,
2013-04-07 20:03:00,50.2,37.3,29.95,WSW,256,4.0,16.0,61,0.00,,,0.00,Wunderground v.1.15,2013-04-08 00:03:00,
2013-04-07 20:07:00,50.0,37.1,29.95,West,262,4.0,16.0,61,0.00,,,0.00,Wunderground v.1.15,2013-04-08 00:07:00,
2013-04-07 20:08:00,50.0,37.1,29.95,WNW,290,4.0,16.0,61,0.00,,,0.00,Wunderground v.1.15,2013-04-08 00:08:00,
2013-04-07 20:09:00,50.0,37.1,29.95,West,266,4.0,16.0,61,0.00,,,0.00,Wunderground v.1.15,2013-04-08 00:09:00,
2013-04-07 20:11:00,49.9,37.0,29.95,WNW,291,4.0,16.0,61,0.00,,,0.00,Wunderground v.1.15,2013-04-08 00:11:00,
2013-04-07 20:12:00,49.9,37.0,29.95,West,270,4.0,16.0,61,0.00,,,0.00,Wunderground v.1.15,2013-04-08 00:12:00,
2013-04-07 20:14:00,49.9,37.0,29.95,West,277,4.0,16.0,61,0.00,,,0.00,Wunderground v.1.15,2013-04-08 00:14:00,
2013-04-07 20:15:00,49.9,37.0,29.95,WSW,250,4.0,16.0,61,0.00,,,0.00,Wunderground v.1.15,2013-04-08 00:15:00,
2013-04-07 20:16:00,49.8,36.9,29.96,WSW,250,5.0,16.0,61,0.00,,,0.00,Wunderground v.1.15,2013-04-08 00:16:00,
2013-04-07 20:20:00,49.8,36.9,29.96,NW,311,5.0,5.0,61,0.00,,,0.00,Wunderground v.1.15,2013-04-08 00:20:00,
2013-04-07 20:21:00,49.8,36.9,29.96,West,278,4.0,16.0,61,0.00,,,0.00,Wunderground v.1.15,2013-04-08 00:21:00,
2013-04-07 20:23:00,49.7,36.8,29.96,West,269,4.0,16.0,61,0.00,,,0.00,Wunderground v.1.15,2013-04-08 00:23:00,
2013-04-07 20:26:00,49.7,37.2,29.96,WSW,258,3.0,16.0,62,0.00,,,0.00,Wunderground v.1.15,2013-04-08 00:26:00,
2013-04-07 20:28:00,49.6,37.1,29.96,West,261,3.0,16.0,62,0.00,,,0.00,Wunderground v.1.15,2013-04-08 00:28:00,
2013-04-07 20:32:00,49.6,37.1,29.97,WNW,295,3.0,16.0,62,0.00,,,0.00,Wunderground v.1.15,2013-04-08 00:32:00,
2013-04-07 20:34:00,49.4,36.5,29.97,NW,314,3.0,16.0,61,0.00,,,0.00,Wunderground v.1.15,2013-04-08 00:34:00,
2013-04-07 20:36:00,49.1,36.2,29.97,WNW,297,3.0,16.0,61,0.00,,,0.00,Wunderground v.1.15,2013-04-08 00:36:00,
2013-04-07 20:37:00,48.9,36.0,29.97,NW,323,3.0,16.0,61,0.00,,,0.00,Wunderground v.1.15,2013-04-08 00:37:00,
2013-04-07 20:39:00,48.7,36.3,29.98,WNW,293,3.0,16.0,62,0.00,,,0.00,Wunderground v.1.15,2013-04-08 00:39:00,
2013-04-07 20:42:00,48.3,35.9,29.98,WSW,252,3.0,16.0,62,0.00,,,0.00,Wunderground v.1.15,2013-04-08 00:42:00,
2013-04-07 20:44:00,48.0,36.0,29.98,NW,304,3.0,16.0,63,0.00,,,0.00,Wunderground v.1.15,2013-04-08 00:44:00,
2013-04-07 20:47:00,47.7,35.7,29.98,WNW,284,4.0,16.0,63,0.00,,,0.00,Wunderground v.1.15,2013-04-08 00:47:00,
2013-04-07 20:48:00,47.6,35.6,29.98,WNW,285,4.0,16.0,63,0.00,,,0.00,Wunderground v.1.15,2013-04-08 00:48:00,
2013-04-07 20:50:00,47.4,35.8,29.99,NW,314,3.0,3.0,64,0.00,,,0.00,Wunderground v.1.15,2013-04-08 00:50:00,
2013-04-07 20:52:00,47.3,35.7,29.99,SW,235,3.0,16.0,64,0.00,,,0.00,Wunderground v.1.15,2013-04-08 00:52:00,
2013-04-07 20:55:00,47.2,35.6,29.99,NW,316,3.0,16.0,64,0.00,,,0.00,Wunderground v.1.15,2013-04-08 00:55:00,
2013-04-07 20:58:00,47.0,35.8,29.99,NW,304,3.0,16.0,65,0.00,,,0.00,Wunderground v.1.15,2013-04-08 00:58:00,
2013-04-07 20:59:00,47.0,35.8,29.99,WNW,291,3.0,16.0,65,0.00,,,0.00,Wunderground v.1.15,2013-04-08 00:59:00,
2013-04-07 21:03:00,46.8,35.6,30.00,WNW,294,3.0,16.0,65,0.00,,,0.00,Wunderground v.1.15,2013-04-08 01:03:00,
2013-04-07 21:05:00,46.7,35.6,30.00,WSW,258,3.0,16.0,65,0.00,,,0.00,Wunderground v.1.15,2013-04-08 01:05:00,
2013-04-07 21:09:00,46.6,35.8,30.00,West,272,3.0,16.0,66,0.00,,,0.00,Wunderground v.1.15,2013-04-08 01:09:00,
2013-04-07 21:10:00,46.6,35.8,30.00,West,268,3.0,3.0,66,0.00,,,0.00,Wunderground v.1.15,2013-04-08 01:10:00,
2013-04-07 21:12:00,46.5,35.7,30.01,NW,305,3.0,16.0,66,0.00,,,0.00,Wunderground v.1.15,2013-04-08 01:12:00,
2013-04-07 21:13:00,46.4,35.7,30.01,NNW,329,2.0,16.0,66,0.00,,,0.00,Wunderground v.1.15,2013-04-08 01:13:00,
2013-04-07 21:16:00,46.3,35.6,30.01,West,269,3.0,16.0,66,0.00,,,0.00,Wunderground v.1.15,2013-04-08 01:16:00,
2013-04-07 21:20:00,46.2,35.5,30.01,NW,311,3.0,16.0,66,0.00,,,0.00,Wunderground v.1.15,2013-04-08 01:20:00,
2013-04-07 21:23:00,46.1,35.4,30.02,WNW,285,4.0,16.0,66,0.00,,,0.00,Wunderground v.1.15,2013-04-08 01:23:00,
2013-04-07 21:25:00,46.0,35.3,30.02,NW,307,4.0,16.0,66,0.00,,,0.00,Wunderground v.1.15,2013-04-08 01:25:00,
2013-04-07 21:27:00,45.9,35.2,30.02,WNW,297,4.0,16.0,66,0.00,,,0.00,Wunderground v.1.15,2013-04-08 01:27:00,
2013-04-07 21:29:00,45.9,35.6,30.02,West,277,4.0,16.0,67,0.00,,,0.00,Wunderground v.1.15,2013-04-08 01:29:00,
2013-04-07 21:31:00,45.9,35.6,30.02,WNW,297,4.0,16.0,67,0.00,,,0.00,Wunderground v.1.15,2013-04-08 01:31:00,
2013-04-07 21:35:00,45.7,35.4,30.02,WNW,296,3.0,16.0,67,0.00,,,0.00,Wunderground v.1.15,2013-04-08 01:35:00,
2013-04-07 21:36:00,45.7,35.4,30.03,West,268,3.0,16.0,67,0.00,,,0.00,Wunderground v.1.15,2013-04-08 01:36:00,
2013-04-07 21:38:00,45.6,35.3,30.03,WNW,293,3.0,16.0,67,0.00,,,0.00,Wunderground v.1.15,2013-04-08 01:38:00,
2013-04-07 21:39:00,45.6,35.3,30.03,WNW,291,3.0,16.0,67,0.00,,,0.00,Wunderground v.1.15,2013-04-08 01:39:00,
2013-04-07 21:41:00,45.6,35.3,30.03,West,276,3.0,16.0,67,0.00,,,0.00,Wunderground v.1.15,2013-04-08 01:41:00,
2013-04-07 21:44:00,45.5,35.2,30.03,WNW,293,3.0,16.0,67,0.00,,,0.00,Wunderground v.1.15,2013-04-08 01:44:00,
2013-04-07 21:48:00,45.5,35.2,30.03,West,278,3.0,16.0,67,0.00,,,0.00,Wunderground v.1.15,2013-04-08 01:48:00,
2013-04-07 21:50:00,45.4,35.1,30.03,West,266,3.0,3.0,67,0.00,,,0.00,Wunderground v.1.15,2013-04-08 01:50:00,
2013-04-07 21:51:00,45.4,35.1,30.03,WNW,294,3.0,6.0,67,0.00,,,0.00,Wunderground v.1.15,2013-04-08 01:51:00,
2013-04-07 21:53:00,45.3,35.0,30.03,West,276,3.0,16.0,67,0.00,,,0.00,Wunderground v.1.15,2013-04-08 01:53:00,
2013-04-07 21:55:00,45.3,35.0,30.03,NNW,333,3.0,16.0,67,0.00,,,0.00,Wunderground v.1.15,2013-04-08 01:55:00,
2013-04-07 21:58:00,45.2,35.3,30.04,West,273,3.0,16.0,68,0.00,,,0.00,Wunderground v.1.15,2013-04-08 01:58:00,
2013-04-07 22:01:00,45.2,35.3,30.04,West,260,3.0,16.0,68,0.00,,,0.00,Wunderground v.1.15,2013-04-08 02:01:00,
2013-04-07 22:02:00,45.2,35.3,30.04,NW,324,3.0,16.0,68,0.00,,,0.00,Wunderground v.1.15,2013-04-08 02:02:00,
2013-04-07 22:03:00,45.1,35.2,30.04,West,278,3.0,16.0,68,0.00,,,0.00,Wunderground v.1.15,2013-04-08 02:03:00,
2013-04-07 22:07:00,45.1,35.2,30.04,West,269,3.0,16.0,68,0.00,,,0.00,Wunderground v.1.15,2013-04-08 02:07:00,
2013-04-07 22:08:00,45.0,35.1,30.04,West,262,3.0,16.0,68,0.00,,,0.00,Wunderground v.1.15,2013-04-08 02:08:00,
2013-04-07 22:13:00,45.0,35.1,30.04,WNW,294,3.0,16.0,68,0.00,,,0.00,Wunderground v.1.15,2013-04-08 02:13:00,
2013-04-07 22:15:00,45.0,35.1,30.04,West,262,3.0,16.0,68,0.00,,,0.00,Wunderground v.1.15,2013-04-08 02:15:00,
2013-04-07 22:16:00,45.0,35.1,30.04,WNW,287,3.0,16.0,68,0.00,,,0.00,Wunderground v.1.15,2013-04-08 02:16:00,
2013-04-07 22:20:00,45.0,35.1,30.04,WNW,295,2.0,2.0,68,0.00,,,0.00,Wunderground v.1.15,2013-04-08 02:20:00,
2013-04-07 22:21:00,45.0,35.1,30.04,WNW,292,2.0,16.0,68,0.00,,,0.00,Wunderground v.1.15,2013-04-08 02:21:00,
2013-04-07 22:25:00,44.9,35.0,30.04,NE,49,2.0,16.0,68,0.00,,,0.00,Wunderground v.1.15,2013-04-08 02:25:00,
2013-04-07 22:26:00,44.9,35.0,30.04,WNW,288,2.0,16.0,68,0.00,,,0.00,Wunderground v.1.15,2013-04-08 02:26:00,
2013-04-07 22:27:00,44.9,35.0,30.04,WNW,285,2.0,16.0,68,0.00,,,0.00,Wunderground v.1.15,2013-04-08 02:27:00,
2013-04-07 22:32:00,44.8,34.9,30.05,WNW,286,3.0,16.0,68,0.00,,,0.00,Wunderground v.1.15,2013-04-08 02:32:00,
2013-04-07 22:33:00,44.8,34.9,30.05,West,281,3.0,16.0,68,0.00,,,0.00,Wunderground v.1.15,2013-04-08 02:33:00,
2013-04-07 22:34:00,44.8,34.9,30.05,West,276,3.0,16.0,68,0.00,,,0.00,Wunderground v.1.15,2013-04-08 02:34:00,
2013-04-07 22:35:00,44.8,34.9,30.05,WSW,253,2.0,16.0,68,0.00,,,0.00,Wunderground v.1.15,2013-04-08 02:35:00,
2013-04-07 22:39:00,44.7,34.8,30.05,West,277,2.0,16.0,68,0.00,,,0.00,Wunderground v.1.15,2013-04-08 02:39:00,
2013-04-07 22:40:00,44.7,34.8,30.05,West,280,1.0,1.0,68,0.00,,,0.00,Wunderground v.1.15,2013-04-08 02:40:00,
2013-04-07 22:43:00,44.6,34.7,30.05,WSW,245,2.0,16.0,68,0.00,,,0.00,Wunderground v.1.15,2013-04-08 02:43:00,
2013-04-07 22:45:00,44.6,34.7,30.05,West,269,2.0,16.0,68,0.00,,,0.00,Wunderground v.1.15,2013-04-08 02:45:00,
2013-04-07 22:48:00,44.5,34.6,30.05,WSW,245,1.0,16.0,68,0.00,,,0.00,Wunderground v.1.15,2013-04-08 02:48:00,
2013-04-07 22:51:00,44.4,34.5,30.05,West,278,2.0,16.0,68,0.00,,,0.00,Wunderground v.1.15,2013-04-08 02:51:00,
2013-04-07 22:54:00,44.4,34.5,30.05,WSW,244,1.0,16.0,68,0.00,,,0.00,Wunderground v.1.15,2013-04-08 02:54:00,
2013-04-07 22:55:00,44.4,34.5,30.05,WSW,249,1.0,16.0,68,0.00,,,0.00,Wunderground v.1.15,2013-04-08 02:55:00,
2013-04-07 22:57:00,44.3,34.4,30.05,NW,305,2.0,16.0,68,0.00,,,0.00,Wunderground v.1.15,2013-04-08 02:57:00,
2013-04-07 23:00:00,44.3,34.8,30.05,WNW,290,3.0,16.0,69,0.00,,,0.00,Wunderground v.1.15,2013-04-08 03:00:00,
2013-04-07 23:02:00,44.1,34.6,30.05,NW,304,3.0,16.0,69,0.00,,,0.00,Wunderground v.1.15,2013-04-08 03:02:00,
2013-04-07 23:05:00,44.0,34.5,30.05,WNW,291,4.0,16.0,69,0.00,,,0.00,Wunderground v.1.15,2013-04-08 03:05:00,
2013-04-07 23:06:00,44.0,34.5,30.05,West,281,4.0,16.0,69,0.00,,,0.00,Wunderground v.1.15,2013-04-08 03:06:00,
2013-04-07 23:10:00,43.9,34.4,30.06,West,278,3.0,16.0,69,0.00,,,0.00,Wunderground v.1.15,2013-04-08 03:10:00,
2013-04-07 23:11:00,43.9,34.4,30.06,WNW,291,3.0,16.0,69,0.00,,,0.00,Wunderground v.1.15,2013-04-08 03:11:00,
2013-04-07 23:17:00,43.8,34.6,30.06,West,267,2.0,16.0,70,0.00,,,0.00,Wunderground v.1.15,2013-04-08 03:17:00,
2013-04-07 23:18:00,43.8,34.6,30.06,WNW,290,2.0,16.0,70,0.00,,,0.00,Wunderground v.1.15,2013-04-08 03:18:00,
2013-04-07 23:19:00,43.8,34.6,30.06,WSW,255,2.0,16.0,70,0.00,,,0.00,Wunderground v.1.15,2013-04-08 03:19:00,
2013-04-07 23:24:00,43.7,34.6,30.05,WNW,285,3.0,16.0,70,0.00,,,0.00,Wunderground v.1.15,2013-04-08 03:24:00,
2013-04-07 23:25:00,43.7,34.6,30.05,WNW,295,2.0,16.0,70,0.00,,,0.00,Wunderground v.1.15,2013-04-08 03:25:00,
2013-04-07 23:26:00,43.6,34.5,30.05,West,267,2.0,16.0,70,0.00,,,0.00,Wunderground v.1.15,2013-04-08 03:26:00,
2013-04-07 23:32:00,43.6,34.5,30.06,WNW,288,3.0,16.0,70,0.00,,,0.00,Wunderground v.1.15,2013-04-08 03:32:00,
2013-04-07 23:33:00,43.5,34.4,30.06,WNW,294,3.0,16.0,70,0.00,,,0.00,Wunderground v.1.15,2013-04-08 03:33:00,
2013-04-07 23:34:00,43.5,34.4,30.06,WNW,285,3.0,16.0,70,0.00,,,0.00,Wunderground v.1.15,2013-04-08 03:34:00,
2013-04-07 23:38:00,43.5,34.4,30.06,WNW,290,2.0,16.0,70,0.00,,,0.00,Wunderground v.1.15,2013-04-08 03:38:00,
2013-04-07 23:40:00,43.5,34.4,30.06,WNW,292,2.0,16.0,70,0.00,,,0.00,Wunderground v.1.15,2013-04-08 03:40:00,
2013-04-07 23:45:00,43.3,34.2,30.06,WNW,293,2.0,16.0,70,0.00,,,0.00,Wunderground v.1.15,2013-04-08 03:45:00,
2013-04-07 23:46:00,43.3,34.2,30.06,WNW,295,2.0,16.0,70,0.00,,,0.00,Wunderground v.1.15,2013-04-08 03:46:00,
2013-04-07 23:47:00,43.3,34.2,30.06,NW,304,2.0,16.0,70,0.00,,,0.00,Wunderground v.1.15,2013-04-08 03:47:00,
2013-04-07 23:51:00,43.3,34.2,30.06,West,263,2.0,16.0,70,0.00,,,0.00,Wunderground v.1.15,2013-04-08 03:51:00,
2013-04-07 23:52:00,43.3,34.5,30.06,SW,225,2.0,16.0,71,0.00,,,0.00,Wunderground v.1.15,2013-04-08 03:52:00,
2013-04-07 23:55:00,43.3,34.5,30.06,WSW,252,2.0,16.0,71,0.00,,,0.00,Wunderground v.1.15,2013-04-08 03:55:00,
2013-04-07 23:57:00,43.2,34.4,30.06,West,270,2.0,16.0,71,0.00,,,0.00,Wunderground v.1.15,2013-04-08 03:57:00,
2013-04-07 23:59:00,43.2,34.4,30.06,West,266,2.0,16.0,71,0.00,,,0.00,Wunderground v.1.15,2013-04-08 03:59:00,